[{"header": {"dx": 0.06612293990616946, "dy": 0.0552356325346848, "nx": 98, "ny": 59, "la1": 35.046912555036876, "la2": 31.78801023549047, "lo1": -121.43107172385933, "lo2": -114.95102361305473, "refTime": "2026042413", "parameterCategory": 1, "parameterNumber": 2}, "data": [6.29, 5.89, 5.67, 5.26, 4.63, 4.66, 4.03, 3.4, 3.42, 2.8, 2.4, 0.61, -0.63, -0.89, -0.45, -1.26, -2.8, -3.82, -4.38, -5.26, -5.36, -4.82, -4.0, -3.49, -2.84, -2.15, -1.88, -1.24, -1.26, -0.6, -0.0, 0.6, 1.26, 1.86, 2.6, 2.68, 2.68, 2.24, 0.89, 0.0, 0.0, 0.89, 1.86, 4.65, 7.64, 10.29, 13.15, 12.16, 4.8, 1.88, 2.88, 3.72, 4.01, 4.01, 4.01, 4.43, 5.09, 6.07, 6.0, 6.0, 5.34, 3.82, 3.2, 2.23, 2.91, 3.82, 5.64, 7.01, 8.36, 10.49, 10.62, 9.81, 8.94, 8.49, 8.94, 9.39, 9.39, 7.12, 1.34, -2.12, -2.4, -2.12, -2.24, -2.63, -2.17, -1.34, 0.0, 1.34, 3.13, 5.77, 8.91, 8.88, 8.93, 9.9, 9.84, 8.4, 6.66, 6.71, 6.29, 6.31, 5.89, 5.92, 5.04, 4.63, 4.44, 4.03, 3.4, 3.42, 2.82, 0.65, 0.0, 0.0, 0.0, 0.0, -1.58, -3.2, -4.15, -4.24, -6.17, -6.26, -4.38, -3.6, -2.84, -1.84, -1.88, -1.9, -1.86, -1.7, -0.95, -0.0, -0.0, 1.24, 1.9, 2.91, 3.53, 3.58, 2.68, 2.24, 1.7, 2.23, 4.74, 6.88, 9.1, 11.7, 11.44, 4.46, 1.61, 2.98, 3.72, 4.01, 4.43, 4.75, 4.11, 4.43, 5.43, 7.03, 7.03, 6.54, 6.28, 5.05, 3.84, 3.84, 3.49, 4.8, 6.0, 7.21, 8.19, 10.49, 11.4, 10.16, 8.49, 8.49, 8.46, 9.39, 10.28, 7.12, 1.34, -2.12, -2.4, -2.12, -2.24, -2.63, -2.17, -1.34, 0.0, 1.34, 3.13, 5.77, 8.91, 8.88, 8.93, 9.9, 9.84, 8.4, 6.66, 6.71, 6.29, 6.31, 6.31, 5.67, 5.26, 5.29, 4.42, 4.0, 3.81, 3.4, 3.0, 2.4, 0.54, 0.63, 0.89, 0.89, 0.0, -2.15, -3.45, -4.57, -4.3, -6.36, -7.08, -4.92, -3.51, -2.53, -1.88, -1.61, -1.86, -2.24, -1.79, -1.34, -0.63, -0.0, 1.86, 3.04, 3.53, 4.02, 3.97, 3.82, 3.72, 5.69, 7.73, 9.31, 9.6, 9.17, 4.66, 2.5, 3.35, 4.11, 3.79, 4.46, 4.46, 4.81, 4.12, 4.81, 6.07, 7.03, 7.89, 6.94, 6.0, 4.46, 3.72, 4.74, 4.43, 5.43, 6.7, 7.67, 8.55, 10.43, 11.87, 11.52, 9.83, 8.36, 7.71, 9.11, 10.62, 7.56, 0.0, -2.68, -2.24, -2.24, -2.63, -3.97, -3.97, -2.24, -0.45, 1.34, 3.39, 8.91, 11.34, 10.28, 9.3, 8.32, 3.97, 3.39, 4.52, 7.56, 6.29, 6.56, 6.31, 5.89, 5.92, 5.26, 5.06, 4.66, 4.03, 4.05, 3.42, 2.8, 1.16, 0.71, 0.95, 1.26, 1.49, 0.0, -2.68, -4.73, -4.43, -3.95, -6.45, -7.28, -5.77, -3.51, -2.5, -1.9, -1.26, -1.79, -2.4, -2.5, -2.4, -0.63, 1.34, 3.13, 4.02, 5.73, 6.0, 6.06, 7.31, 8.53, 7.9, 7.06, 6.28, 5.81, 4.93, 5.69, 6.0, 4.84, 4.09, 4.46, 4.46, 4.46, 4.46, 5.46, 6.07, 6.94, 7.89, 7.21, 4.93, 3.48, 3.9, 3.9, 5.3, 6.01, 7.06, 8.23, 9.46, 10.99, 12.94, 13.29, 11.15, 7.92, 5.95, 7.44, 9.49, 6.79, 0.0, -3.45, -3.32, -3.51, -3.97, -5.32, -4.87, -2.68, 0.45, 2.4, 5.69, 10.87, 12.08, 10.28, 6.7, 1.7, -0.0, 2.0, 5.44, 8.94, 6.56, 6.56, 6.31, 6.31, 5.67, 5.69, 5.29, 4.63, 4.44, 4.03, 3.4, 2.77, 1.16, 0.65, 1.2, 1.2, 1.61, 1.49, -0.57, -4.3, -7.08, -4.92, -4.02, -5.81, -6.26, -5.36, -3.13, -1.7, -0.63, -0.45, -1.26, -2.15, -2.51, -1.27, 1.33, 4.11, 4.11, 6.52, 7.27, 6.79, 6.88, 6.08, 3.97, 4.73, 6.79, 7.71, 7.71, 7.21, 5.6, 5.05, 4.46, 4.46, 4.09, 3.78, 5.09, 6.44, 6.94, 6.94, 7.98, 7.71, 3.45, 2.07, 2.35, 3.91, 5.38, 6.88, 7.68, 8.03, 8.6, 10.9, 13.49, 15.77, 13.42, 9.58, 5.16, 4.36, 5.06, 2.53, -0.54, -4.73, -5.31, -4.0, -4.24, -6.07, -4.73, -1.88, 1.88, 5.72, 9.92, 11.9, 11.26, 8.3, 2.21, -1.0, -0.0, 3.14, 7.15, 10.25, 6.56, 6.56, 6.31, 6.31, 6.31, 5.92, 5.26, 5.06, 4.66, 4.24, 4.05, 3.42, 1.33, 1.2, 1.2, 1.88, 1.61, 1.88, 0.61, -2.79, -6.36, -5.64, -5.29, -4.92, -4.47, -4.38, -3.2, -1.86, -0.8, 0.0, 0.0, 0.0, 0.0, 0.0, 2.06, 3.4, 3.79, 6.01, 6.32, 3.55, 2.2, 2.21, 3.58, 7.11, 9.39, 8.94, 7.01, 5.34, 4.46, 4.09, 4.09, 4.09, 4.09, 4.09, 5.05, 6.54, 6.79, 6.79, 8.4, 8.63, 3.83, 0.66, 2.26, 3.8, 5.38, 7.18, 7.97, 7.02, 6.68, 9.3, 12.79, 14.71, 14.64, 15.24, 11.4, 2.86, 0.0, -0.54, -1.24, -3.49, -5.06, -4.36, -4.12, -5.09, -3.72, 0.0, 4.71, 9.17, 10.86, 9.9, 8.68, 7.03, 1.7, -0.57, -0.0, 3.58, 8.36, 10.49, 6.56, 6.56, 6.31, 6.31, 6.31, 5.92, 5.69, 5.29, 5.06, 4.44, 4.03, 3.4, 1.33, 1.61, 2.23, 1.61, 1.88, 2.07, 2.3, 0.0, -3.09, -3.97, -3.97, -3.82, -3.2, -2.86, -2.41, -1.49, -0.7, -1.2, 0.0, 0.45, 0.95, 1.84, 2.66, 2.6, 2.6, 4.74, 3.22, 1.88, 0.0, 1.05, 3.45, 6.87, 7.81, 3.97, 3.16, 4.11, 4.43, 6.0, 5.6, 4.0, 4.09, 4.09, 4.4, 5.34, 5.86, 6.07, 7.89, 8.36, 2.86, 0.73, 1.41, 3.0, 3.79, 6.24, 8.32, 6.7, 5.6, 7.98, 10.75, 11.03, 12.72, 16.05, 16.69, 8.05, -0.6, -2.24, -1.26, 0.0, -3.0, -3.15, -3.09, -2.9, -0.77, 2.06, 6.31, 9.02, 9.48, 8.27, 5.09, 1.58, -1.2, -2.12, 0.45, 3.82, 8.91, 9.83, 6.56, 6.56, 6.31, 6.31, 6.31, 6.33, 5.69, 5.7, 5.06, 4.66, 4.24, 3.6, 1.49, 1.88, 3.16, 2.15, 2.5, 3.84, 4.11, 2.86, 1.7, 1.24, -0.0, -0.63, -1.24, -0.76, -0.79, -1.96, -3.45, -2.84, -1.74, 0.0, 0.65, 2.41, 4.11, 3.15, 1.94, 2.79, 3.2, 1.9, 0.79, 1.07, 2.06, 1.99, 0.45, -0.0, 1.27, 3.72, 4.46, 5.75, 3.32, 3.6, 4.0, 4.93, 4.93, 5.16, 5.64, 6.07, 7.45, 5.64, 2.21, -0.0, 0.59, 2.2, 3.07, 5.09, 8.24, 8.14, 4.92, 5.81, 8.49, 9.81, 12.07, 15.2, 16.54, 12.96, 3.58, 0.89, 1.2, 1.61, 0.61, -2.0, -2.17, -0.72, 0.68, 3.41, 5.6, 7.63, 7.82, 3.15, -1.26, -4.43, -3.98, -1.79, 1.7, 4.52, 8.67, 9.08, 6.31, 6.31, 6.31, 6.31, 6.31, 6.33, 5.92, 5.69, 5.29, 5.06, 4.66, 3.52, 2.12, 2.47, 2.4, 2.41, 3.07, 3.79, 4.09, 3.2, 2.68, 2.8, 2.8, 1.7, 0.63, 0.0, -0.7, -3.63, -5.37, -2.76, -0.88, 0.0, 0.95, 2.12, 3.43, 3.16, 2.41, 1.49, 1.26, 1.2, 0.65, 0.0, 0.0, -1.34, -0.8, -0.0, 0.71, 2.21, 3.49, 3.49, 5.37, 3.45, 4.0, 4.0, 4.73, 5.16, 5.77, 6.66, 6.66, 5.16, 2.84, 1.27, 1.4, 2.21, 2.8, 4.4, 8.19, 8.82, 4.92, 5.16, 6.66, 9.36, 12.87, 14.69, 15.14, 13.84, 10.28, 6.66, 5.64, 4.0, 2.5, 0.0, -0.64, 0.0, 1.33, 3.39, 5.0, 5.95, 3.32, 0.0, -3.13, -3.98, -3.54, -0.71, 2.79, 6.64, 8.8, 8.24, 6.31, 6.31, 6.7, 6.7, 6.31, 6.58, 6.33, 5.69, 5.69, 5.29, 5.06, 4.63, 4.0, 3.49, 2.4, 3.09, 3.27, 3.45, 3.4, 1.99, 1.4, 1.6, 1.34, 1.34, 0.0, -1.6, -2.4, -3.2, -3.16, -0.88, 0.0, 0.0, 0.0, 0.61, 1.6, 2.84, 3.22, 2.21, 0.45, -0.0, -0.45, -0.89, -1.2, -1.2, -0.6, -0.0, -0.0, 1.0, 1.88, 2.51, 2.84, 3.49, 4.0, 4.24, 4.41, 4.43, 5.36, 6.26, 6.26, 4.66, 3.43, 2.35, 3.4, 2.53, 2.8, 3.82, 7.45, 8.38, 4.92, 4.0, 6.0, 9.46, 12.66, 14.15, 15.13, 14.15, 11.84, 9.33, 8.48, 7.56, 3.72, 2.5, 1.16, 1.27, 1.27, 1.94, 2.8, 2.44, 0.57, -1.34, -2.17, -2.91, -2.51, 0.0, 2.73, 7.69, 9.27, 7.69, 6.31, 6.31, 6.97, 6.97, 6.58, 6.58, 6.33, 5.92, 5.69, 5.69, 5.69, 5.04, 5.29, 5.06, 3.27, 2.9, 4.25, 3.37, 2.33, 1.15, 0.0, 0.0, 0.0, -0.6, -1.6, -2.68, -2.24, -1.79, -0.8, 0.0, 0.0, 0.0, 0.0, 0.0, 1.26, 2.21, 3.2, 0.95, -1.34, -1.7, -1.9, -1.9, -0.57, -0.0, -0.0, -0.0, -0.0, 0.61, 1.16, 1.33, 2.51, 3.16, 3.49, 4.0, 3.82, 4.43, 4.92, 4.92, 4.47, 2.86, 2.35, 2.99, 3.0, 2.98, 2.73, 3.48, 6.0, 6.79, 4.47, 4.09, 6.08, 9.05, 11.3, 12.92, 14.49, 14.93, 12.01, 9.08, 8.55, 8.24, 5.31, 2.5, 2.4, 2.91, 2.91, 2.91, 3.07, 2.91, 1.34, 0.45, -0.42, -1.33, -1.35, 0.0, 2.82, 7.59, 9.3, 7.33, 6.31, 6.58, 6.97, 6.97, 6.97, 6.58, 6.33, 6.33, 6.33, 6.33, 5.92, 5.69, 5.69, 6.34, 5.72, 5.72, 5.32, 4.6, 2.35, 0.55, -0.54, -1.0, -2.17, -2.24, -1.79, -1.79, -1.34, -2.12, -1.79, -2.12, -2.12, -1.34, -1.7, -1.7, -0.45, 0.0, -0.63, -2.24, -3.13, -3.39, -3.14, -2.51, -1.33, -1.08, -1.08, -1.27, -0.7, -0.0, -0.0, 0.65, 1.2, 1.88, 2.53, 3.14, 3.6, 4.24, 5.44, 4.43, 2.68, 0.53, 0.71, 2.31, 3.0, 1.47, 0.78, 2.9, 5.21, 6.7, 4.93, 4.02, 4.0, 6.25, 8.52, 10.52, 12.37, 13.49, 11.18, 8.3, 7.85, 7.28, 2.86, 1.9, 2.5, 3.07, 3.58, 4.02, 4.02, 3.58, 3.13, 2.68, 1.86, 0.0, -1.23, 0.0, 3.7, 7.82, 8.27, 4.11, 6.58, 6.58, 6.97, 6.97, 6.97, 6.58, 6.31, 6.31, 6.31, 6.31, 6.31, 6.33, 6.33, 6.97, 6.98, 7.3, 6.95, 5.72, 4.03, 1.71, 0.0, -1.0, -2.68, -3.58, -3.07, -2.63, -3.07, -3.87, -4.88, -5.34, -3.53, -3.13, -3.13, -3.13, -2.24, -2.17, -2.63, -3.13, -3.97, -4.73, -4.0, -3.49, -2.07, -1.33, -0.76, -1.4, -1.88, -1.49, -0.8, -0.0, -0.0, 0.63, 1.7, 2.17, 2.6, 3.04, 3.6, 6.0, 2.68, -0.65, -0.0, 1.55, 0.74, -0.0, -0.0, 0.69, 2.82, 5.38, 5.69, 5.43, 4.12, 4.52, 5.36, 7.71, 9.6, 10.75, 8.63, 6.28, 5.6, 3.45, 1.2, 1.84, 4.74, 4.29, 3.32, 3.82, 3.82, 3.53, 3.13, 3.58, 3.58, 2.4, 0.0, 0.0, 3.61, 7.82, 6.06, 1.86, 6.58, 6.58, 6.97, 6.97, 6.97, 6.7, 6.31, 6.31, 6.31, 6.96, 6.7, 6.31, 6.7, 6.96, 7.61, 7.93, 7.59, 6.64, 5.71, 4.47, 2.82, 0.54, -0.63, -2.24, -3.13, -3.58, -4.02, -4.92, -5.36, -5.36, -4.89, -3.07, -4.47, -3.07, -2.4, -2.4, -3.07, -3.13, -3.97, -5.16, -4.24, -3.82, -2.8, -2.23, -2.23, -2.23, -1.86, -2.54, -2.12, -1.7, -1.34, 0.45, 0.0, 0.89, 0.63, 0.8, 0.89, 4.02, 4.92, -0.0, -2.2, -1.03, -1.01, -2.09, -0.67, -0.63, 0.57, 2.0, 5.15, 5.49, 6.31, 6.95, 7.06, 7.15, 6.07, 4.47, 2.68, 2.24, 2.68, 1.86, 0.76, 2.88, 5.59, 4.94, 3.12, 4.12, 3.72, 3.32, 3.13, 3.58, 4.02, 3.98, 2.68, 2.0, 3.97, 5.3, 3.07, 0.89, 6.58, 6.58, 6.97, 6.97, 7.24, 6.96, 6.96, 6.96, 6.96, 6.96, 6.96, 6.96, 6.96, 7.33, 7.96, 8.24, 7.93, 7.27, 6.34, 6.32, 5.69, 4.37, 2.5, 0.0, -1.79, -3.58, -4.02, -4.47, -4.92, -4.92, -4.47, -4.44, -2.54, -2.21, -2.21, -2.21, -2.4, -2.68, -6.17, -4.87, -4.41, -5.7, -4.02, -3.13, -2.8, -2.53, -2.84, -3.35, -4.24, -2.6, -2.24, -1.34, 0.45, 0.0, 0.45, 0.45, 0.0, 3.07, 4.92, 0.65, -2.21, -2.21, -2.53, -2.21, -1.4, -1.49, -0.0, -0.0, 0.65, 1.66, 4.29, 7.69, 10.02, 8.05, 3.13, 0.54, 1.4, 1.58, 1.34, 1.2, 1.16, 2.0, 3.43, 2.53, 1.6, 2.9, 2.48, 2.5, 2.17, 3.07, 3.98, 4.3, 4.0, 3.45, 4.46, 3.07, 1.79, 1.79, 6.58, 6.97, 6.97, 6.97, 7.24, 6.96, 6.96, 6.96, 6.96, 6.96, 6.96, 6.96, 7.33, 7.6, 7.96, 8.24, 7.95, 7.93, 7.59, 6.67, 6.64, 6.28, 5.29, 2.84, 0.0, -2.17, -4.02, -4.44, -4.89, -4.89, -4.92, -4.47, -3.82, -1.6, -0.95, -0.8, -1.79, -3.07, -5.94, -6.88, -3.97, -3.13, -3.58, -3.58, -3.82, -3.35, -3.72, -3.72, -3.35, -3.82, -4.02, -1.79, -0.89, 0.45, 0.0, 0.0, 0.0, 1.2, 1.2, -0.0, -1.7, -3.82, -3.35, -3.82, -2.12, -1.34, -0.45, -0.0, -0.0, 2.15, 3.82, 7.6, 11.15, 6.71, 2.4, 0.61, 1.13, 1.4, 0.95, 0.0, 0.0, 0.65, 1.24, 1.2, 0.63, 0.0, 0.57, 0.59, 1.2, 2.5, 3.72, 3.72, 3.07, 4.11, 5.44, 3.87, 2.91, 2.91, 6.58, 6.97, 6.97, 6.97, 7.24, 7.24, 6.96, 6.96, 6.96, 6.96, 6.96, 7.6, 7.6, 7.96, 8.24, 8.87, 8.56, 8.24, 7.9, 7.59, 6.95, 6.92, 6.79, 5.49, 3.43, 0.99, -1.6, -3.58, -4.89, -5.34, -5.36, -4.92, -3.98, -1.6, -0.95, -1.7, -3.53, -5.94, -5.26, -6.17, -5.36, -2.68, -4.47, -2.6, -4.34, -3.82, -3.82, -3.82, -3.82, -3.82, -2.97, -2.68, -2.24, -1.79, 1.34, 0.45, 0.89, -0.0, -2.24, -3.39, -4.02, -4.02, -3.82, -3.82, -3.82, -1.2, -0.0, -0.45, 0.89, 3.58, 7.4, 7.95, 8.32, 2.91, -0.0, -0.61, 0.57, 1.33, 1.24, 0.89, 0.0, 0.0, 0.0, 0.0, 0.45, -0.45, 0.0, 0.0, 1.33, 3.48, 4.41, 3.72, 3.14, 4.09, 5.6, 4.11, 3.07, 3.07, 6.97, 6.97, 6.97, 6.97, 6.97, 7.24, 7.24, 6.96, 6.96, 6.96, 6.96, 7.6, 7.6, 7.96, 8.24, 8.85, 8.56, 8.85, 7.93, 7.59, 7.55, 7.51, 6.87, 6.95, 6.1, 4.9, 2.21, -0.6, -3.58, -5.36, -5.78, -5.78, -5.36, -4.92, -4.47, -3.53, -5.31, -6.71, -5.81, -3.58, -3.13, -3.13, -3.13, -3.13, -4.47, -3.39, -3.39, -3.39, -3.82, -3.39, -2.97, -2.68, -2.24, -1.79, -1.34, 0.89, 0.45, 0.89, -2.68, -3.82, -3.82, -3.58, -3.39, -3.72, -4.8, -1.9, -1.24, 0.0, 1.33, 6.52, 7.96, 4.74, 2.23, -0.6, -2.68, -1.84, -0.0, 2.07, 3.14, 2.91, 2.6, 1.34, 0.0, 0.0, -0.6, -0.54, 0.0, 0.0, 1.35, 2.8, 3.72, 3.72, 3.78, 4.75, 5.09, 3.72, 3.14, 3.14, 6.97, 6.97, 6.97, 6.97, 6.97, 6.97, 7.61, 7.61, 7.33, 7.33, 7.33, 7.6, 7.6, 7.96, 7.96, 7.82, 8.24, 8.85, 7.9, 8.15, 8.44, 8.15, 7.51, 5.43, 4.46, 4.6, 5.21, 1.61, -0.6, -4.02, -5.78, -6.23, -6.16, -6.61, -6.94, -7.84, -8.47, -8.05, -5.77, -5.26, -3.97, -3.58, -3.13, -4.92, -3.58, -3.13, -3.13, -3.39, -3.39, -3.39, -3.13, -2.8, -2.4, -1.58, -1.26, 1.34, 0.45, 0.0, -1.26, -2.8, -3.58, -3.13, -3.35, -2.21, -3.49, -3.22, -2.21, -0.0, 2.5, 5.6, 7.98, 9.83, 11.18, 8.01, 2.24, -0.0, 1.2, 3.13, 4.43, 4.43, 4.02, 2.4, 0.0, 0.0, 0.0, 0.0, 0.57, 1.76, 2.18, 1.93, 2.11, 3.72, 5.37, 4.71, 4.43, 3.48, 3.16, 3.16, 6.97, 6.97, 6.97, 6.97, 6.97, 6.97, 7.61, 7.61, 7.61, 7.61, 7.33, 7.33, 7.96, 7.96, 8.58, 8.53, 8.53, 7.93, 6.14, 6.32, 7.68, 8.78, 8.19, 6.01, 5.37, 4.74, 3.72, 3.45, 0.63, -2.68, -4.92, -5.78, -6.16, -6.51, -6.94, -7.51, -8.03, -8.05, -7.58, -7.58, -7.13, -7.15, -6.71, -5.81, -4.92, -3.13, -3.13, -3.58, -2.97, -2.97, -2.8, -2.8, -2.4, -2.4, -1.2, -0.63, 0.89, 0.45, 0.0, -1.79, -2.68, -3.2, -3.48, -3.49, -1.88, -2.21, -1.9, -0.0, 3.2, 5.36, 9.36, 14.67, 19.53, 20.1, 14.67, 7.2, 3.43, 4.43, 5.64, 5.77, 6.26, 4.43, 1.2, 0.0, 0.0, 0.54, 0.99, 1.49, 1.58, 0.57, 0.78, 3.8, 6.14, 4.37, 3.47, 3.79, 3.64, 3.64, 6.97, 6.97, 6.97, 6.97, 6.97, 6.97, 7.61, 7.61, 7.61, 7.61, 7.61, 7.61, 8.24, 8.24, 8.58, 8.87, 8.85, 8.24, 6.98, 6.14, 7.27, 8.22, 8.53, 7.91, 6.98, 6.35, 5.1, 3.4, 1.67, -1.13, -3.53, -4.92, -5.78, -5.79, -6.16, -6.68, -7.13, -7.15, -7.6, -7.15, -7.15, -7.15, -6.71, -6.23, -5.33, -3.58, -3.13, -3.13, -2.97, -2.8, -2.8, -2.8, -2.8, -1.9, -1.58, -0.6, -0.6, -0.0, 0.45, 0.89, -1.34, -2.84, -3.49, -3.79, -1.49, -1.58, -1.24, -0.0, 1.4, 4.46, 8.0, 12.14, 16.05, 16.54, 14.92, 11.87, 7.77, 7.12, 5.94, 5.05, 7.12, 6.71, 2.91, 0.0, 0.0, 0.0, -0.0, 0.63, 2.68, 2.5, 2.11, 3.88, 4.5, 2.6, 2.04, 2.72, 2.6, 2.6, 6.97, 6.97, 6.97, 6.97, 6.97, 6.97, 7.33, 7.61, 7.61, 7.61, 7.61, 7.61, 8.24, 8.24, 8.87, 9.17, 8.56, 8.53, 8.24, 8.53, 8.5, 8.22, 8.24, 8.24, 7.61, 6.97, 5.72, 4.73, 2.77, 0.61, -1.88, -3.53, -4.47, -4.92, -5.33, -5.34, -5.81, -6.26, -6.26, -6.26, -6.26, -6.26, -5.79, -5.78, -5.24, -4.44, -3.13, -2.68, -2.4, -2.4, -2.4, -2.4, -2.8, -1.2, -1.58, -2.21, -1.9, -1.26, 0.0, 0.89, 0.45, -0.0, -0.61, -1.2, -1.26, -1.24, -1.24, -0.54, -0.0, 1.05, 1.96, 5.46, 10.28, 9.11, 5.18, 7.08, 7.88, 7.2, 5.52, 4.73, 5.72, 7.48, 4.87, 2.17, 0.45, 0.45, 0.0, 0.95, 3.14, 4.52, 6.35, 5.59, 2.73, 0.71, 0.0, 1.13, 2.0, 2.0, 6.71, 6.71, 6.71, 6.97, 6.97, 6.97, 7.33, 7.33, 7.61, 7.61, 7.95, 7.95, 8.24, 8.56, 8.87, 8.87, 8.87, 8.85, 9.13, 9.46, 10.01, 9.37, 8.78, 8.22, 7.93, 7.6, 6.95, 5.71, 4.08, 2.16, 0.0, -1.24, -2.63, -3.58, -4.02, -4.02, -4.47, -4.47, -4.92, -4.92, -5.36, -4.89, -4.8, -4.77, -4.6, -3.7, -2.68, -2.4, -2.4, -2.4, -2.0, -2.4, -2.4, -2.4, -1.0, -2.53, -1.88, -1.58, -0.0, 1.34, 1.34, 0.54, -0.0, -0.0, -0.0, -0.54, -0.54, -0.57, -0.65, -0.61, -0.76, -0.0, 5.77, 1.34, 0.0, 2.02, 5.72, 6.34, 5.64, 4.24, 4.87, 6.39, 5.86, 3.6, 2.21, 0.57, 0.57, 1.33, 3.43, 6.32, 6.98, 3.48, 1.49, 0.0, 0.45, 1.61, 2.23, 2.23, 6.71, 6.71, 6.71, 6.71, 6.97, 6.97, 7.61, 7.61, 7.9, 7.95, 7.95, 7.95, 8.24, 8.56, 8.87, 8.87, 8.87, 9.13, 9.46, 10.06, 10.3, 10.01, 9.37, 8.78, 8.22, 7.9, 7.59, 6.92, 6.01, 3.85, 2.4, 0.51, -0.57, -1.7, -2.17, -2.68, -3.13, -3.13, -3.58, -3.58, -4.02, -3.98, -3.87, -3.6, -3.35, -2.84, -2.21, -2.21, -1.9, -1.9, -1.0, -1.58, -2.0, -2.4, -2.4, -2.53, -2.5, -2.5, -0.8, 0.6, 1.86, 1.2, 0.53, 0.65, -0.0, -0.0, -0.0, -0.0, -0.54, -0.0, -0.63, 6.0, 8.82, 4.47, 0.45, 0.0, 1.95, 3.97, 4.97, 4.1, 3.6, 4.96, 5.37, 4.75, 2.73, 1.23, 1.23, 1.35, 3.0, 2.73, 3.16, 1.2, 0.63, 0.89, 1.2, 2.21, 2.23, 2.23, 6.71, 6.71, 6.71, 6.71, 6.98, 6.98, 7.61, 7.61, 7.61, 8.24, 7.95, 7.95, 8.24, 8.56, 8.87, 8.87, 8.56, 9.46, 9.72, 10.06, 10.3, 10.59, 10.01, 9.37, 8.78, 8.45, 8.19, 8.15, 7.17, 5.69, 4.45, 2.86, 1.61, 0.0, 0.0, -0.95, -1.6, -1.7, -2.24, -2.24, -2.68, -2.63, -2.91, -2.5, -2.23, -2.51, -2.51, -2.07, -1.84, -1.8, -1.6, -1.0, -1.26, -2.4, -2.8, -2.53, -3.35, -2.68, -2.23, -0.0, 2.21, 1.88, 0.65, -0.0, -0.0, -0.0, -0.53, -0.0, -0.53, -0.0, 1.61, 4.46, 10.52, 11.15, 10.49, 6.07, 2.68, 1.33, 3.14, 3.11, 3.39, 4.05, 4.8, 4.67, 2.66, 0.7, 0.61, 1.3, 1.35, 0.53, 0.0, -0.0, 1.34, 2.24, 2.49, 2.68, 2.5, 2.5, 6.98, 6.98, 6.98, 6.98, 6.98, 6.98, 6.98, 7.61, 7.61, 8.24, 8.24, 8.24, 8.56, 8.56, 8.87, 8.85, 8.85, 9.46, 10.06, 10.3, 10.65, 10.3, 10.59, 10.01, 9.59, 9.02, 8.73, 8.73, 8.44, 7.8, 6.57, 5.01, 3.48, 2.53, 1.58, 0.8, 0.0, 0.0, 0.0, -0.63, -0.89, -1.2, -1.26, -1.24, -1.2, -1.16, -0.59, -0.59, -1.13, -1.13, -1.13, -0.59, -1.0, -1.0, -2.98, -3.35, -3.35, -4.34, -3.9, -1.6, 0.71, 1.4, 0.65, -0.0, -0.0, -0.0, -0.61, -0.0, -0.57, -0.0, 1.26, 3.22, 7.92, 12.5, 13.78, 13.89, 10.88, 4.0, 1.35, 2.12, 2.97, 4.05, 4.66, 3.47, 1.19, 0.0, 0.0, 0.63, 0.0, -1.24, -0.57, 0.89, 2.4, 3.39, 3.39, 3.32, 2.91, 2.91, 6.98, 6.98, 6.98, 6.98, 6.98, 6.98, 6.98, 7.61, 7.61, 8.24, 8.24, 8.24, 8.85, 8.85, 8.85, 8.85, 8.85, 9.13, 9.72, 10.3, 10.65, 10.59, 10.59, 10.59, 10.3, 9.59, 9.3, 9.3, 8.73, 8.65, 8.0, 8.27, 7.23, 6.41, 5.47, 4.8, 4.11, 3.2, 2.91, 2.6, 2.24, 2.24, 2.0, -0.0, -0.0, -0.0, -0.0, -0.0, -0.0, -0.0, -0.59, -0.59, -0.59, -1.13, -1.9, -2.4, -3.82, -4.92, -3.53, -3.07, -1.26, -0.0, -0.0, -0.0, -0.0, -0.0, -0.61, -0.0, 0.45, 0.0, 0.57, 2.53, 5.6, 8.91, 10.25, 11.88, 13.96, 7.48, 1.27, 0.0, 2.12, 3.69, 4.12, 1.84, 0.55, 0.0, 0.0, 0.0, -0.99, -1.9, -1.16, 0.0, 2.79, 3.14, 3.6, 3.6, 3.2, 3.2, 6.7, 6.7, 6.7, 6.98, 6.98, 6.98, 6.98, 7.61, 7.61, 7.93, 8.24, 8.53, 8.85, 8.85, 8.85, 8.85, 8.85, 9.13, 9.72, 10.3, 10.3, 10.59, 10.59, 10.59, 10.51, 10.15, 10.23, 10.41, 9.86, 9.76, 9.48, 9.1, 8.43, 7.76, 7.31, 6.51, 5.81, 5.09, 4.77, 4.44, 4.02, 4.02, 3.87, 3.6, 3.72, 3.35, 3.14, 1.16, 0.61, -0.0, -0.0, -0.0, -0.0, -0.0, -1.13, -1.58, -2.97, -4.77, -3.97, -3.82, -2.8, -1.74, -0.0, -0.0, -0.0, -1.19, -0.0, -0.45, -0.6, 0.0, 0.6, 2.5, 4.46, 4.46, 5.16, 10.62, 12.58, 4.73, 0.0, 0.0, 2.23, 5.52, 5.86, 2.8, 0.0, -0.57, -1.23, -2.53, -2.4, -1.9, -1.9, -0.57, 2.23, 2.84, 3.14, 3.35, 3.6, 3.6, 6.7, 6.7, 6.7, 6.7, 6.98, 6.98, 6.98, 7.32, 7.61, 7.61, 8.24, 8.53, 8.85, 8.85, 8.85, 8.85, 9.13, 9.13, 9.72, 10.3, 10.59, 10.59, 10.59, 11.07, 10.51, 10.7, 10.79, 10.41, 10.68, 10.3, 10.02, 9.48, 8.96, 8.8, 8.51, 8.22, 7.51, 6.79, 6.47, 6.23, 5.81, 5.36, 4.8, 2.91, 2.91, 4.55, 4.27, 3.35, 2.79, 1.4, 0.53, -0.0, -0.0, -0.0, -0.0, -0.0, -1.26, -4.34, -3.82, -3.82, -2.91, -2.6, -1.9, -1.6, -1.33, -0.7, -0.0, -0.6, -1.2, -1.34, 0.45, 3.58, 6.66, 7.07, 8.01, 11.14, 9.9, 2.21, -0.63, 0.45, 2.68, 6.01, 6.97, 4.69, 0.0, -2.53, -3.78, -3.72, -2.79, -2.15, -2.17, -1.79, 0.45, 2.21, 2.79, 3.14, 3.35, 3.35, 6.7, 6.7, 6.7, 6.7, 6.98, 6.98, 6.98, 7.32, 7.61, 7.61, 7.93, 8.53, 8.53, 8.85, 8.85, 9.15, 9.42, 9.42, 10.01, 10.59, 10.59, 10.59, 10.51, 10.87, 10.7, 10.96, 10.96, 10.96, 10.68, 10.55, 10.16, 9.88, 9.48, 9.71, 9.42, 9.21, 8.48, 8.17, 7.87, 7.51, 7.15, 6.26, 6.23, 5.7, 5.51, 3.32, 3.32, 4.4, 4.11, 3.35, 3.14, 3.14, 1.16, 0.61, 0.51, 0.59, -0.0, -2.84, -3.39, -3.97, -3.13, -2.68, -1.34, -2.5, -3.07, -2.2, -0.7, -0.0, 0.6, -0.0, -0.0, 2.6, 7.71, 11.62, 13.04, 14.08, 11.52, 3.14, 0.45, 1.2, 2.24, 5.35, 6.97, 6.0, 1.27, -2.68, -4.27, -5.2, -4.52, -3.98, -3.53, -2.17, -0.63, 0.95, 1.86, 2.68, 3.6, 3.6, 6.98, 6.98, 6.98, 6.7, 6.98, 6.98, 6.98, 7.32, 7.32, 7.61, 7.93, 7.93, 8.82, 8.82, 8.82, 9.08, 9.42, 9.42, 10.01, 10.59, 10.59, 10.51, 10.51, 10.51, 10.7, 10.96, 10.96, 10.83, 10.68, 10.55, 10.55, 10.4, 10.4, 10.11, 9.92, 9.42, 8.79, 8.64, 8.33, 7.97, 7.58, 7.15, 6.68, 6.23, 5.7, 3.32, 3.74, 5.51, 4.4, 4.27, 3.88, 3.72, 2.84, 1.84, 1.16, 1.16, 1.33, -0.0, -3.35, -3.58, -3.07, -2.6, -2.24, -3.49, -3.49, -2.79, -2.07, -0.0, 1.4, 2.21, 0.6, -0.0, 3.32, 12.8, 17.43, 16.71, 12.52, 6.44, 3.39, 2.91, 2.15, 1.61, 4.75, 6.62, 4.75, 0.0, -4.41, -4.52, -4.88, -4.87, -4.11, -2.91, -0.6, 0.8, 1.7, 2.6, 2.91, 2.91, 6.98, 6.98, 6.98, 6.98, 6.98, 6.98, 6.98, 7.32, 7.32, 7.32, 7.93, 7.93, 8.82, 8.82, 9.08, 9.08, 9.42, 9.66, 10.01, 10.51, 10.51, 10.51, 10.51, 10.51, 10.79, 10.79, 10.58, 10.3, 9.27, 9.88, 10.4, 10.91, 10.4, 10.21, 9.92, 9.51, 9.21, 8.96, 8.64, 8.42, 8.03, 7.6, 7.15, 6.68, 6.23, 6.16, 6.16, 5.99, 5.51, 4.8, 4.4, 4.27, 3.88, 3.72, 3.14, 1.84, 1.84, 1.16, -0.0, -3.07, -2.63, -2.17, -1.9, -2.53, -3.49, -3.84, -3.14, -2.23, -0.0, 1.58, -0.0, -1.34, 0.45, 7.98, 18.71, 18.26, 6.7, 1.33, 2.53, 4.6, 3.87, 2.63, 3.07, 5.81, 6.8, 6.67, 4.07, 1.88, 0.45, -1.26, -2.79, -3.07, -1.26, 0.6, 1.79, 2.68, 3.09, 3.09, 6.98, 6.98, 6.98, 6.98, 6.98, 6.98, 7.27, 7.6, 7.6, 7.6, 7.93, 7.93, 8.82, 8.82, 9.08, 9.08, 9.08, 9.94, 10.3, 10.51, 10.51, 10.51, 10.15, 10.41, 10.79, 10.41, 10.68, 10.3, 10.02, 9.2, 9.71, 10.21, 10.62, 10.21, 10.0, 9.7, 9.86, 9.39, 9.11, 8.77, 8.42, 8.03, 7.6, 7.15, 6.68, 6.68, 6.16, 6.16, 5.57, 5.09, 5.02, 4.4, 4.4, 3.88, 3.72, 3.35, 3.14, 2.23, 1.88, 0.71, -0.63, -0.6, -1.6, -1.6, -4.11, -3.79, -3.83, -2.91, -1.6, -0.0, 0.45, -2.0, -0.57, 3.49, 18.17, 18.76, 2.15, -2.91, 0.89, 4.47, 7.12, 6.58, 5.78, 5.36, 8.92, 9.23, 9.23, 9.23, 5.36, 3.82, 0.65, -1.2, -1.26, 0.63, 2.24, 3.13, 3.58, 3.58, 6.98, 6.98, 6.98, 6.98, 6.98, 6.98, 7.27, 7.6, 7.6, 7.6, 8.22, 8.22, 8.22, 8.82, 9.08, 9.08, 9.37, 9.94, 9.94, 10.51, 10.51, 10.41, 10.41, 10.41, 10.41, 10.41, 10.68, 10.3, 10.3, 10.16, 9.88, 10.21, 10.42, 10.42, 10.18, 10.12, 9.86, 9.57, 9.11, 8.79, 8.42, 8.47, 8.05, 7.6, 7.15, 7.15, 6.68, 6.61, 6.16, 5.7, 5.24, 4.6, 4.6, 4.6, 4.52, 3.88, 3.72, 3.35, 2.53, 2.53, 0.95, -0.0, -0.0, -2.48, -2.84, -2.86, -2.84, -2.86, -1.58, -1.58, -0.0, 0.89, 1.4, 6.32, 15.77, 21.4, 12.5, 3.32, 3.45, 7.76, 9.29, 9.83, 9.83, 8.94, 8.94, 10.71, 11.57, 11.16, 8.05, 4.77, 2.23, -0.0, -0.6, 0.45, 1.34, 3.13, 3.58, 3.58, 6.98, 6.98, 6.98, 6.98, 6.98, 6.98, 6.98, 7.6, 7.6, 7.6, 7.9, 8.22, 8.22, 8.5, 8.5, 9.37, 9.37, 9.94, 9.94, 10.15, 10.41, 10.41, 10.41, 10.41, 10.68, 10.68, 10.3, 10.3, 10.3, 10.55, 10.4, 10.21, 10.42, 10.0, 10.18, 9.86, 9.86, 9.57, 9.67, 9.23, 8.87, 8.47, 8.05, 8.05, 7.6, 7.6, 7.13, 7.13, 6.68, 6.16, 5.7, 5.24, 5.24, 5.09, 4.6, 4.52, 3.88, 3.72, 3.6, 3.6, 2.79, 1.26, -0.0, -2.84, -2.84, -3.35, -2.86, -2.53, -1.9, -1.74, -0.0, 1.9, 5.81, 10.02, 14.27, 18.33, 19.26, 16.71, 14.49, 14.22, 12.94, 11.75, 10.84, 9.62, 9.29, 11.57, 12.02, 9.39, 6.71, 5.2, 3.14, 0.53, -0.0, 0.45, 0.89, 1.79, 3.58, 3.58, 6.69, 6.69, 6.98, 6.98, 6.98, 6.98, 6.98, 7.3, 7.6, 7.6, 7.6, 8.22, 8.22, 8.5, 8.5, 8.5, 9.37, 9.94, 9.94, 10.15, 10.41, 10.41, 10.41, 10.41, 10.68, 10.68, 10.3, 10.55, 10.16, 10.16, 10.4, 10.21, 10.21, 10.0, 10.12, 9.86, 9.86, 9.57, 9.68, 9.23, 8.87, 8.92, 8.49, 8.05, 8.05, 7.6, 7.58, 7.58, 7.13, 6.68, 6.16, 5.7, 5.24, 5.24, 5.09, 4.6, 4.11, 4.11, 4.11, 3.6, 3.6, 2.5, -0.0, -1.26, -1.26, -2.53, -2.21, -2.53, -2.21, -1.9, -0.8, -0.0, 4.29, 10.49, 13.86, 14.75, 15.47, 16.53, 17.59, 17.42, 15.05, 9.68, 5.6, 4.11, 4.77, 5.78, 7.15, 5.81, 5.32, 4.77, 4.0, 2.23, 0.57, 0.45, 0.89, 1.34, 3.13, 3.13, 6.69, 6.69, 6.69, 6.98, 6.98, 6.98, 6.98, 7.3, 7.3, 7.6, 7.6, 7.9, 8.22, 8.5, 8.78, 8.78, 9.37, 9.59, 9.94, 10.23, 10.41, 10.04, 10.04, 10.3, 10.68, 10.3, 10.55, 10.16, 10.16, 10.27, 9.88, 10.11, 9.71, 9.92, 10.12, 9.7, 9.86, 9.57, 9.11, 9.23, 8.87, 8.42, 8.03, 6.71, 7.15, 7.6, 7.6, 7.6, 7.15, 6.68, 6.23, 5.7, 5.24, 5.24, 4.8, 4.77, 4.3, 4.3, 3.87, 3.7, 4.11, 3.6, -0.0, -0.6, -0.6, -2.21, -1.88, -1.84, -1.88, -1.61, -1.2, -0.65, 1.6, 10.21, 14.11, 13.41, 11.98, 14.22, 16.92, 17.31, 14.15, 8.02, 3.39, 2.4, 2.63, 4.02, 4.92, 4.88, 4.88, 4.73, 4.11, 3.6, 2.5, 1.2, 1.34, 1.6, 2.17, 2.24, 6.69, 6.69, 6.69, 6.69, 6.98, 6.98, 6.98, 7.3, 7.3, 7.6, 7.6, 7.9, 8.19, 8.78, 8.78, 8.78, 8.78, 9.37, 9.86, 9.86, 9.86, 9.86, 10.3, 10.3, 10.3, 10.55, 10.55, 10.16, 10.4, 9.88, 10.11, 9.71, 9.92, 9.92, 9.7, 9.7, 9.43, 9.39, 9.11, 9.11, 8.77, 8.42, 7.97, 6.26, 7.6, 7.6, 7.58, 7.6, 7.15, 6.71, 6.26, 5.78, 5.33, 4.89, 4.88, 4.44, 4.44, 3.98, 3.87, 3.87, 4.3, 3.87, 1.6, -0.0, -0.6, -1.6, -2.48, -1.88, -1.88, -1.4, -1.2, -0.71, 0.71, 7.47, 14.7, 15.01, 11.18, 11.95, 14.62, 15.76, 12.35, 8.47, 5.36, 3.13, 1.79, 2.63, 3.98, 4.73, 4.77, 4.73, 4.3, 4.11, 3.6, 2.6, 1.79, 1.26, 1.86, 2.17, 6.69, 6.69, 6.69, 6.69, 6.69, 6.98, 7.28, 7.59, 7.59, 7.3, 7.59, 8.19, 8.19, 8.45, 8.78, 8.78, 8.78, 9.02, 9.86, 9.86, 9.86, 10.13, 10.3, 10.3, 10.55, 10.55, 10.16, 10.4, 9.88, 10.11, 10.11, 9.71, 9.92, 9.51, 9.7, 9.7, 9.43, 9.39, 9.11, 9.11, 8.77, 8.33, 7.97, 7.51, 6.71, 8.03, 7.58, 7.13, 6.68, 6.26, 5.81, 5.81, 5.36, 4.92, 4.92, 4.47, 4.44, 3.98, 3.97, 3.82, 3.87, 3.87, 3.32, 0.63, -0.0, -2.53, -1.86, -1.9, -1.88, -1.88, -1.2, -1.24, -0.0, 2.4, 10.4, 14.39, 14.92, 12.52, 10.95, 8.93, 5.44, 4.77, 4.47, 3.53, 2.91, 3.39, 4.3, 5.2, 5.64, 5.2, 4.73, 4.3, 4.3, 3.97, 2.68, 1.86, 1.9, 1.86, 6.69, 6.69, 6.69, 6.97, 6.97, 6.97, 6.97, 7.59, 7.59, 7.59, 7.59, 8.19, 8.19, 8.45, 8.78, 8.78, 8.78, 8.78, 9.3, 9.5, 10.13, 10.13, 9.76, 10.16, 10.16, 10.16, 10.4, 10.4, 9.88, 10.11, 9.71, 9.92, 9.92, 9.7, 9.7, 9.7, 9.43, 9.39, 9.11, 9.11, 8.64, 8.33, 7.87, 7.87, 7.97, 7.11, 7.58, 7.13, 6.68, 6.23, 5.78, 5.36, 5.36, 4.92, 4.92, 4.47, 4.47, 3.98, 3.53, 3.97, 3.98, 3.87, 2.0, 0.95, -0.0, -1.2, -1.26, -2.84, -1.88, -2.15, -1.61, -1.58, -0.89, 0.45, 2.23, 10.8, 15.77, 16.53, 7.6, 1.2, 0.0, 1.2, 3.09, 4.3, 5.2, 5.2, 5.33, 6.26, 6.71, 6.22, 5.32, 5.32, 5.36, 6.71, 5.36, 3.51, 2.5, 2.5, 6.69, 6.69, 6.97, 6.97, 6.97, 6.97, 6.97, 7.59, 7.59, 7.59, 7.59, 7.86, 8.19, 8.19, 8.45, 8.78, 8.78, 9.08, 9.3, 9.3, 9.76, 9.76, 10.02, 10.02, 10.16, 10.4, 10.4, 10.0, 10.11, 10.11, 9.71, 9.92, 9.51, 9.51, 9.7, 9.7, 9.43, 9.39, 9.11, 9.11, 8.64, 8.33, 8.3, 7.87, 7.87, 8.41, 8.03, 7.13, 7.13, 6.68, 6.23, 5.81, 5.36, 5.36, 4.92, 4.92, 4.47, 4.02, 3.98, 3.53, 3.97, 3.98, 3.53, 0.89, -0.0, -1.2, -2.53, -2.23, -2.15, -2.53, -1.9, -1.26, -0.89, 0.0, 0.63, 3.95, 12.94, 17.91, 14.7, 3.87, 1.2, 2.68, 5.44, 8.67, 8.46, 7.6, 6.22, 6.22, 6.22, 6.26, 6.26, 6.71, 7.12, 7.56, 6.07, 4.24, 4.24, 4.24, 6.35, 6.35, 6.97, 6.97, 6.97, 6.97, 6.97, 6.97, 7.59, 7.59, 7.59, 7.86, 8.19, 8.19, 8.45, 8.45, 8.73, 8.73, 8.94, 9.3, 9.58, 9.76, 10.02, 10.02, 10.16, 10.4, 10.4, 10.0, 10.11, 10.11, 9.71, 9.71, 9.51, 9.51, 9.7, 9.7, 9.43, 9.39, 9.11, 9.11, 8.64, 8.77, 8.33, 7.87, 7.97, 7.97, 8.03, 7.58, 7.58, 7.13, 6.71, 6.26, 5.81, 5.81, 5.36, 4.92, 4.47, 4.02, 4.02, 4.02, 3.97, 3.97, 3.53, 1.34, 0.45, -1.9, -4.09, -3.48, -2.53, -2.53, -1.9, -1.26, -0.45, 0.0, 1.2, 2.51, 8.36, 14.67, 17.96, 16.85, 13.14, 13.02, 13.99, 13.21, 10.7, 7.12, 4.77, 4.52, 4.6, 5.44, 5.64, 6.55, 7.01, 6.79, 6.07, 4.24, 4.24, 4.24, 6.64, 6.64, 6.97, 6.97, 6.97, 6.97, 6.97, 6.97, 7.27, 7.59, 7.59, 7.86, 7.86, 8.19, 8.73, 8.73, 8.73, 8.73, 8.73, 9.21, 9.21, 9.21, 9.63, 9.63, 10.27, 10.4, 10.0, 10.0, 10.11, 10.11, 9.71, 9.71, 9.51, 9.51, 9.42, 9.21, 9.21, 9.39, 8.96, 9.11, 8.64, 8.64, 8.33, 8.3, 7.87, 7.97, 7.97, 8.03, 7.58, 7.13, 6.71, 6.26, 6.23, 5.78, 5.78, 4.92, 4.92, 4.47, 4.02, 4.02, 4.02, 3.97, 3.97, 3.07, 0.89, -0.95, -4.4, -3.83, -3.45, -2.5, -2.23, -1.7, -0.45, 0.0, 1.24, 2.5, 4.24, 11.15, 15.18, 15.67, 15.67, 17.87, 18.33, 15.72, 10.84, 4.92, 3.07, 3.2, 3.72, 3.72, 6.79, 4.3, 3.82, 3.32, 2.63, 1.7, 1.7, 1.7, 6.64, 6.64, 6.97, 6.97, 6.97, 6.97, 6.97, 6.97, 7.27, 7.27, 7.59, 7.59, 7.86, 8.15, 8.49, 8.73, 8.73, 8.73, 8.73, 9.01, 9.21, 9.21, 9.48, 9.63, 9.88, 9.88, 9.88, 10.11, 10.11, 10.11, 9.71, 9.71, 9.51, 9.42, 9.42, 9.21, 9.21, 9.39, 8.96, 8.96, 8.64, 8.64, 8.21, 8.3, 7.87, 7.87, 7.97, 7.97, 7.51, 7.13, 6.68, 6.68, 6.23, 6.23, 5.78, 5.36, 4.92, 4.47, 4.47, 4.02, 4.02, 4.02, 3.53, 3.53, 2.6, 0.45, -3.35, -3.32, -3.82, -3.32, -2.6, -2.24, -1.79, -0.89, 0.45, 0.89, 2.68, 8.01, 11.18, 10.29, 11.7, 16.37, 18.55, 16.4, 12.5, 5.44, 2.68, 2.17, 1.9, 2.53, 2.68, 1.79, 1.79, 1.34, 0.45, -0.89, -0.89, -0.89, 6.35, 6.35, 6.67, 6.97, 6.97, 6.97, 6.97, 7.27, 7.27, 7.27, 7.55, 7.88, 8.15, 8.15, 8.15, 8.38, 8.73, 8.73, 9.01, 9.01, 9.21, 9.21, 9.48, 9.48, 9.63, 9.88, 9.88, 10.11, 10.11, 9.71, 9.71, 9.92, 9.51, 9.42, 9.01, 9.21, 9.21, 8.79, 8.96, 8.91, 8.64, 8.64, 8.21, 8.17, 7.87, 7.87, 7.87, 7.97, 7.51, 7.07, 7.06, 6.61, 6.6, 6.23, 5.34, 5.33, 4.89, 4.47, 4.47, 4.02, 4.02, 4.02, 3.58, 3.58, 3.53, 0.89, -1.58, -3.82, -5.7, -3.13, -3.13, -2.68, -2.68, -1.79, -0.89, 0.0, 1.34, 5.64, 7.67, 6.24, 8.22, 14.11, 17.5, 16.53, 13.45, 4.11, 0.45, 0.45, -0.89, -0.89, -0.63, -0.0, 0.6, 0.89, 0.63, 0.0, 0.0, 0.0, 6.35, 6.35, 6.67, 6.67, 6.67, 6.97, 7.27, 7.55, 7.55, 7.55, 7.55, 7.55, 8.15, 8.15, 8.15, 8.15, 8.38, 8.65, 8.65, 8.65, 8.65, 8.84, 9.1, 9.1, 9.48, 9.88, 9.88, 9.88, 9.71, 9.71, 9.71, 9.92, 9.51, 9.42, 9.01, 9.21, 9.21, 8.79, 8.91, 8.91, 8.48, 8.64, 8.21, 8.17, 7.74, 7.87, 7.87, 7.87, 7.51, 7.07, 7.06, 6.61, 6.6, 6.16, 5.78, 5.33, 4.89, 4.88, 4.44, 4.47, 4.02, 4.02, 3.58, 3.58, 3.58, 1.79, -0.0, -2.4, -4.77, -3.07, -3.51, -3.13, -2.68, -2.24, -1.34, 0.45, 0.63, 2.21, 4.56, 5.49, 6.95, 11.5, 14.74, 15.25, 14.1, 2.68, -3.13, -2.68, -1.2, -1.2, -1.49, -1.24, -0.57, -0.0, 0.0, 0.0, 0.0, 0.0, 6.35, 6.35, 6.95, 6.95, 6.95, 6.95, 7.27, 7.55, 7.55, 7.55, 7.55, 7.55, 7.55, 7.81, 8.15, 8.44, 8.65, 8.65, 8.65, 8.65, 8.65, 9.1, 9.1, 9.1, 9.1, 9.35, 9.48, 9.48, 9.71, 9.71, 9.71, 9.51, 9.51, 9.42, 9.01, 9.21, 9.21, 8.72, 8.72, 8.91, 8.48, 8.48, 8.17, 8.17, 7.74, 7.74, 7.87, 7.87, 7.4, 7.4, 6.94, 6.61, 6.6, 6.16, 5.7, 5.24, 4.89, 4.88, 4.44, 4.43, 3.98, 4.02, 4.02, 3.58, 3.58, 1.79, 0.89, 0.45, -0.6, -1.58, -2.15, -2.4, -2.68, -1.79, -1.34, -0.32, -0.0, 0.65, 1.55, 3.79, 6.01, 8.03, 9.85, 13.51, 14.93, 4.52, -2.91, -0.99, -0.0, -0.0, -0.45, -1.58, -1.2, -0.6, 0.45, 0.0, 0.0, 0.0, 6.65, 6.95, 6.95, 6.95, 6.95, 6.95, 6.95, 7.23, 7.55, 7.55, 7.55, 7.55, 7.55, 7.81, 8.08, 8.44, 8.65, 8.65, 8.65, 8.65, 8.65, 8.93, 9.1, 9.1, 9.1, 9.35, 9.35, 9.35, 9.6, 9.6, 9.2, 9.42, 9.42, 9.42, 9.01, 9.21, 9.21, 8.72, 8.72, 8.48, 8.48, 8.48, 8.0, 8.0, 8.17, 7.74, 7.74, 7.69, 7.4, 7.4, 6.94, 6.51, 6.47, 6.14, 5.7, 5.24, 4.8, 4.88, 4.44, 4.44, 4.43, 3.98, 4.02, 4.02, 4.02, 2.24, 1.34, 0.89, 0.4, -0.0, -0.42, -0.8, -1.26, -1.79, -1.34, -0.63, -0.0, -0.0, 0.61, 1.8, 4.43, 5.37, 6.68, 10.8, 15.41, 0.63, -2.53, -1.24, -0.0, 2.17, 1.79, -0.0, -1.2, -0.6, -0.89, -0.95, -0.95, -0.95, 6.95, 6.95, 6.95, 6.95, 6.95, 6.95, 6.95, 7.23, 7.55, 7.55, 7.55, 7.55, 7.85, 8.08, 8.08, 8.08, 8.08, 8.65, 8.65, 8.65, 8.65, 8.93, 8.93, 9.1, 9.1, 9.35, 9.35, 9.35, 9.6, 9.2, 9.2, 9.2, 9.42, 9.01, 9.01, 9.01, 9.21, 8.72, 8.72, 8.3, 8.48, 8.48, 8.0, 8.0, 8.0, 7.58, 7.69, 7.69, 7.69, 7.26, 6.94, 6.94, 6.47, 6.14, 5.7, 5.24, 5.24, 4.77, 4.77, 4.44, 4.43, 3.98, 3.98, 3.98, 3.98, 3.97, 1.7, 0.63, 0.45, 0.45, -0.0, 0.6, -0.0, -0.0, -1.7, -1.2, -0.0, -0.0, 0.54, 1.16, 2.51, 4.11, 5.72, 9.83, 12.5, 2.15, -1.13, -1.0, 0.0, 1.79, 3.13, 1.26, -0.0, -0.6, -1.34, -1.86, -1.86, -1.86, 6.64, 6.64, 6.95, 6.95, 6.95, 6.95, 7.23, 7.23, 7.23, 7.23, 7.51, 7.85, 7.85, 8.08, 8.08, 8.08, 8.08, 8.29, 8.65, 8.65, 8.93, 8.93, 8.93, 8.93, 8.93, 9.1, 9.35, 9.35, 9.35, 9.2, 9.2, 9.2, 9.2, 9.01, 9.01, 8.91, 8.72, 8.72, 8.72, 8.3, 8.3, 8.48, 8.42, 8.0, 8.0, 7.58, 7.51, 7.69, 7.69, 7.26, 6.79, 6.79, 6.47, 5.99, 5.7, 5.7, 5.24, 4.8, 4.77, 4.34, 4.34, 4.43, 3.98, 3.98, 4.43, 3.98, 2.12, 0.4, 0.0, 0.0, 0.45, 0.45, 0.63, 0.6, -0.6, -0.63, -0.0, -0.0, 0.71, 1.24, 1.88, 3.16, 5.69, 16.54, 11.09, 1.2, -1.23, -0.53, 0.0, 0.63, 1.34, 0.6, -0.0, -0.6, -1.79, -2.4, -2.4, -2.4, 6.64, 6.64, 6.64, 7.25, 7.25, 7.51, 7.51, 7.51, 7.51, 7.51, 7.51, 7.51, 7.51, 8.08, 8.08, 8.08, 8.08, 8.29, 8.55, 8.55, 8.93, 8.93, 8.93, 8.93, 8.55, 8.55, 8.96, 8.96, 8.96, 8.96, 9.2, 9.2, 9.2, 8.8, 8.91, 8.91, 8.51, 8.72, 8.72, 8.3, 8.3, 8.42, 8.42, 8.0, 8.0, 8.0, 7.51, 7.51, 7.69, 7.26, 7.21, 6.79, 6.47, 5.99, 5.57, 5.57, 5.24, 5.24, 4.77, 4.77, 4.34, 4.3, 4.3, 4.43, 4.43, 4.44, 3.87, 2.23, 0.0, -0.63, 0.0, 0.0, 0.0, -0.0, -0.6, -0.6, -0.0, -0.0, 1.26, 1.26, 1.58, 2.79, 10.75, 16.91, 8.05, -0.65, -2.11, -1.13, -1.49, -2.24, -1.79, -0.63, -0.0, -0.63, -1.79, -3.07, -3.07, -3.07, 6.64, 6.64, 6.64, 7.25, 7.25, 7.51, 7.51, 7.51, 7.51, 7.51, 7.51, 7.51, 7.51, 7.73, 8.08, 8.08, 8.37, 8.37, 8.55, 8.55, 8.55, 8.55, 8.55, 8.55, 8.55, 8.55, 8.82, 8.82, 8.96, 8.96, 8.96, 9.2, 8.68, 8.68, 8.91, 8.91, 8.51, 8.51, 8.51, 8.3, 8.22, 8.22, 8.0, 8.0, 8.0, 8.0, 7.58, 7.51, 7.69, 7.69, 7.26, 6.79, 6.3, 5.81, 5.99, 5.57, 5.51, 5.09, 5.24, 4.77, 4.77, 4.34, 4.3, 4.3, 4.3, 4.44, 4.43, 2.54, -0.63, -1.7, -1.86, -1.49, -1.7, -1.34, -1.26, -0.6, -0.63, 0.0, 0.89, 1.34, 1.2, 2.12, 8.19, 14.87, 9.58, -0.0, -2.51, -2.07, -3.07, -4.02, -3.09, -1.34, -0.63, -0.63, -1.79, -2.63, -2.63, -2.63, 6.64, 6.64, 6.64, 6.92, 7.25, 7.25, 7.51, 7.51, 7.51, 7.51, 7.51, 7.51, 7.73, 7.73, 8.08, 8.37, 8.37, 8.37, 8.55, 8.55, 8.55, 8.55, 8.55, 8.55, 8.82, 8.82, 8.82, 8.82, 8.82, 8.96, 8.82, 9.07, 8.68, 8.68, 8.68, 8.68, 8.51, 8.51, 8.4, 8.0, 8.22, 8.22, 7.81, 8.0, 8.0, 8.0, 7.58, 7.51, 7.69, 7.69, 7.26, 7.21, 6.3, 6.3, 5.81, 5.57, 5.51, 5.09, 5.09, 4.6, 4.6, 4.77, 4.34, 4.34, 4.3, 4.34, 4.44, 2.6, -1.2, -3.51, -2.6, -2.17, -1.79, -1.2, -0.6, -0.6, -0.63, 0.0, 0.0, 0.63, 0.63, 2.68, 4.47, 11.6, 11.08, 2.24, -2.21, -2.79, -3.07, -4.02, -4.43, -3.13, -1.7, -1.34, -1.79, -2.24, -2.24, -2.24, 6.64, 6.64, 6.92, 6.92, 6.92, 7.25, 7.51, 7.51, 7.51, 7.51, 7.8, 7.8, 8.0, 8.0, 8.0, 8.0, 8.0, 8.37, 8.37, 8.55, 8.55, 8.55, 8.82, 8.82, 8.82, 8.82, 8.82, 8.82, 8.82, 8.82, 9.07, 8.68, 8.68, 8.68, 8.68, 8.28, 8.51, 8.4, 8.0, 8.0, 8.22, 8.22, 7.81, 7.81, 7.71, 7.93, 7.51, 7.51, 7.51, 7.69, 7.69, 7.21, 6.72, 6.3, 5.81, 5.81, 5.4, 5.51, 5.09, 5.09, 4.6, 4.6, 4.6, 4.19, 4.34, 4.34, 4.34, 2.91, -0.63, -3.58, -2.68, -1.79, -1.34, -0.89, -0.0, -0.0, 0.45, 0.0, 0.0, 0.0, 0.71, 1.61, 4.0, 8.67, 12.05, 4.73, -0.63, -2.23, -2.21, -3.13, -3.98, -4.87, -3.13, -1.79, -1.7, -2.24, -2.24, -2.24, 6.92, 6.92, 6.92, 6.92, 6.92, 6.92, 7.51, 7.51, 7.51, 7.51, 7.8, 7.8, 8.0, 8.0, 8.0, 8.0, 8.0, 8.0, 8.37, 8.55, 8.55, 8.82, 8.82, 8.82, 8.82, 8.82, 8.82, 8.82, 8.82, 8.82, 8.68, 8.68, 8.68, 8.68, 8.68, 8.28, 8.4, 8.4, 8.0, 8.0, 8.0, 8.22, 7.81, 7.71, 7.71, 7.31, 7.31, 7.51, 7.51, 7.51, 7.51, 7.01, 6.6, 6.51, 6.3, 5.81, 5.81, 5.31, 5.31, 4.9, 5.02, 4.6, 4.6, 4.6, 4.6, 4.6, 4.6, 3.6, 0.6, -1.34, -1.79, -1.34, -0.89, -0.89, 0.0, 0.0, 0.45, 0.0, 0.0, 0.0, 0.0, 1.16, 3.16, 7.6, 12.14, 8.4, 1.26, -1.9, -1.9, -2.17, -3.13, -4.43, -3.6, -1.9, -1.86, -2.17, -2.17, -2.17, 6.92, 6.92, 6.92, 6.92, 6.92, 6.92, 7.17, 7.51, 7.51, 7.8, 7.8, 7.8, 8.0, 8.0, 8.0, 8.0, 8.0, 8.0, 8.0, 8.0, 8.43, 8.43, 8.82, 8.82, 8.82, 8.82, 8.82, 8.43, 8.43, 8.43, 8.68, 8.68, 8.68, 8.68, 8.68, 8.28, 8.4, 8.0, 8.0, 8.0, 8.0, 8.0, 7.81, 7.71, 7.71, 7.31, 7.31, 7.31, 7.31, 7.51, 7.51, 7.01, 7.01, 6.6, 6.1, 6.3, 5.81, 5.81, 5.31, 5.31, 4.8, 4.8, 4.4, 4.6, 4.6, 4.6, 4.6, 4.11, 2.5, 0.0, -1.6, -1.2, -1.2, -0.95, -0.6, -0.6, -0.6, -0.63, 0.0, 0.0, 0.0, 0.61, 2.79, 7.28, 12.37, 11.45, 3.35, -0.45, -1.6, -1.34, -2.24, -3.32, -3.14, -2.53, -2.5, -2.4, -2.4, -2.4, 6.92, 6.92, 6.92, 6.92, 6.92, 6.92, 7.17, 7.17, 7.44, 7.44, 7.8, 7.8, 8.0, 8.0, 8.0, 8.0, 8.0, 8.0, 8.0, 8.27, 8.27, 8.43, 8.43, 8.43, 8.43, 8.43, 8.43, 8.43, 8.43, 8.43, 8.68, 8.68, 8.68, 8.68, 8.28, 8.15, 8.4, 8.0, 8.0, 8.0, 8.0, 8.0, 7.6, 7.71, 7.71, 7.31, 7.31, 7.31, 7.31, 7.31, 7.31, 7.01, 7.01, 6.6, 6.51, 6.1, 6.0, 5.81, 5.81, 5.31, 4.9, 4.8, 4.8, 4.4, 4.4, 4.4, 4.4, 4.4, 3.72, 1.9, -0.6, -1.6, -1.2, -1.26, -1.26, -1.26, -1.26, -0.63, -0.63, 0.0, 0.0, 0.59, 2.73, 7.28, 11.87, 13.49, 7.89, 2.15, 0.0, -0.32, -1.2, -2.4, -2.86, -2.53, -2.5, -2.15, -2.15, -2.15, 6.92, 6.92, 6.92, 6.92, 6.92, 6.92, 6.92, 7.17, 7.44, 7.44, 7.44, 7.8, 8.0, 8.0, 8.0, 8.0, 8.0, 8.0, 8.0, 8.27, 8.27, 8.27, 8.43, 8.43, 8.43, 8.43, 8.43, 8.43, 8.43, 8.43, 8.68, 8.68, 8.68, 8.28, 8.15, 8.15, 8.15, 8.0, 8.0, 8.0, 8.0, 8.0, 7.48, 7.71, 7.71, 7.31, 7.31, 7.31, 7.31, 7.31, 6.8, 6.8, 6.8, 7.01, 6.51, 6.51, 6.1, 6.0, 5.6, 5.08, 5.08, 4.8, 4.8, 4.8, 4.8, 4.8, 4.8, 4.4, 4.27, 2.79, 0.57, -0.6, -1.6, -2.0, -1.86, -1.26, -1.26, -1.2, -0.95, -0.6, 0.0, 1.13, 2.73, 6.7, 10.95, 13.21, 11.52, 5.64, 3.39, 2.17, 0.6, -1.26, -1.86, -1.86, -1.24, -1.26, -1.26, -1.26, 6.92, 6.92, 6.92, 6.92, 6.92, 6.92, 6.92, 7.17, 7.44, 7.44, 7.44, 7.8, 8.0, 8.0, 8.0, 8.0, 8.0, 8.0, 8.0, 8.27, 8.27, 8.27, 8.43, 8.43, 8.43, 8.43, 8.43, 8.43, 8.43, 8.43, 8.68, 8.68, 8.68, 8.28, 8.15, 8.15, 8.15, 8.0, 8.0, 8.0, 8.0, 8.0, 7.48, 7.71, 7.71, 7.31, 7.31, 7.31, 7.31, 7.31, 6.8, 6.8, 6.8, 7.01, 6.51, 6.51, 6.1, 6.0, 5.6, 5.08, 5.08, 4.8, 4.8, 4.8, 4.8, 4.8, 4.8, 4.4, 4.27, 2.79, 0.57, -0.6, -1.6, -2.0, -1.86, -1.26, -1.2, -1.2, -0.95, -0.6, 0.0, 1.13, 2.73, 6.08, 9.6, 12.3, 12.5, 10.73, 8.05, 6.26, 4.47, 3.13, 2.24, 1.79, 1.79, 1.7, 1.7, 1.7]}, {"header": {"dx": 0.06612293990616946, "dy": 0.0552356325346848, "nx": 98, "ny": 59, "la1": 35.046912555036876, "la2": 31.78801023549047, "lo1": -121.43107172385933, "lo2": -114.95102361305473, "refTime": "2026042413", "parameterCategory": 1, "parameterNumber": 3}, "data": [-10.3, -10.02, -9.63, -9.35, -8.68, -8.15, -7.48, -6.8, -6.28, -5.6, -4.8, -3.07, -0.63, -0.0, -0.0, -1.26, -1.4, -1.27, -0.88, -1.05, -0.0, 0.96, 2.0, 2.79, 2.84, 2.86, 2.5, 1.86, 1.26, 1.2, 1.34, 1.2, 1.26, 1.24, 0.65, 0.0, 0.0, 0.0, 0.0, 0.0, 0.0, 0.0, -1.24, -3.49, -5.46, -7.12, -9.28, -9.12, -2.4, 2.5, 5.05, 4.46, 4.81, 4.81, 4.81, 4.43, 4.36, 3.79, 3.0, 3.0, 2.29, 1.27, 1.6, 1.49, 1.16, 1.27, 1.41, 1.4, 1.52, 2.25, 1.52, 0.75, 0.0, 0.0, 0.0, 0.0, 0.0, -0.71, 0.0, 0.71, 1.2, 0.71, -0.0, -0.53, -0.54, -0.0, 0.0, 0.0, 0.0, -0.72, -2.97, -5.18, -5.95, -6.09, -5.3, -3.06, -0.74, 0.0, -10.3, -9.76, -10.02, -9.48, -8.96, -8.68, -7.76, -7.48, -6.8, -6.28, -5.08, -2.6, -0.89, 0.0, 0.0, -0.45, -1.58, -1.6, -1.66, -1.41, -1.03, -0.0, 0.88, 1.8, 2.84, 3.07, 2.5, 1.9, 1.24, 0.57, 0.95, 1.34, 1.34, 1.86, 1.9, 1.16, 0.59, 0.0, 0.0, 0.0, -0.57, -1.49, -4.74, -7.64, -9.85, -11.7, -10.68, -2.98, 2.15, 4.46, 4.46, 4.81, 4.43, 4.07, 4.11, 4.43, 4.65, 3.91, 3.91, 2.9, 2.35, 2.88, 3.07, 3.07, 2.79, 2.4, 3.0, 2.4, 2.23, 2.25, 2.28, 1.56, 0.0, 0.0, -0.77, 0.0, 0.0, -0.71, 0.0, 0.71, 1.2, 0.71, -0.0, -0.53, -0.54, -0.0, 0.0, 0.0, 0.0, -0.72, -2.97, -5.18, -5.95, -6.09, -5.3, -3.06, -0.74, 0.0, -10.3, -9.76, -9.76, -9.63, -9.35, -8.82, -8.28, -8.0, -7.08, -6.8, -6.0, -4.8, -2.17, -0.63, 0.0, 0.0, -0.89, -1.61, -2.07, -1.83, -1.23, -2.12, -1.01, -0.0, 0.7, 2.53, 2.5, 2.15, 1.24, -0.0, -0.0, -0.0, 0.63, 0.89, 1.24, 0.76, 0.59, 0.0, -0.66, -1.27, -2.48, -5.69, -9.27, -10.86, -11.2, -9.17, -2.66, 1.88, 4.19, 4.11, 3.79, 3.72, 3.72, 4.01, 3.43, 4.01, 3.79, 3.91, 3.15, 3.09, 3.0, 2.98, 4.46, 4.74, 4.43, 4.65, 4.46, 4.6, 3.88, 4.01, 3.96, 1.54, 0.0, -1.52, -2.31, -2.28, -1.52, -0.76, -0.89, -0.0, -0.0, -0.0, -0.53, -0.66, -0.66, -0.0, -0.0, 0.0, -1.13, -2.97, -5.29, -6.33, -6.97, -6.05, -0.66, 1.13, 1.94, 0.76, -10.3, -10.13, -9.76, -10.02, -9.48, -9.35, -8.43, -8.15, -7.48, -6.95, -6.28, -5.6, -2.91, -2.12, -0.95, -1.26, -0.99, -1.34, -1.61, -1.35, -0.63, -0.79, -1.84, -2.18, -0.72, 0.7, 1.88, 1.9, 1.26, -0.0, -1.2, -1.88, -1.2, -0.63, 0.0, 0.0, 0.0, -0.96, -3.0, -5.3, -6.58, -8.53, -7.9, -5.49, -2.35, 0.0, 2.11, 3.55, 3.0, 3.22, 2.73, 2.98, 2.98, 3.72, 3.72, 3.9, 3.79, 3.09, 3.15, 2.4, 2.11, 3.48, 5.46, 5.46, 6.06, 6.01, 5.49, 6.17, 6.76, 6.87, 6.09, 3.91, 0.8, -1.44, -3.97, -4.96, -3.95, -2.26, -1.79, -2.07, -1.33, -0.7, -0.66, -0.67, -0.7, -0.0, 0.0, -1.2, -3.55, -6.21, -6.79, -6.33, -5.21, -0.57, 3.13, 4.0, 2.04, 0.0, -10.13, -10.13, -9.76, -9.76, -9.63, -9.1, -8.82, -8.68, -7.76, -7.48, -6.8, -6.1, -2.91, -2.6, -2.4, -2.4, -2.15, -2.23, -1.7, -1.23, -1.01, -0.0, -0.0, -0.0, -0.0, -0.0, -0.0, 0.57, 0.63, -0.0, -1.26, -2.86, -3.14, -3.82, -3.32, -4.11, -4.11, -5.44, -7.27, -8.3, -7.64, -4.56, -0.66, 1.35, 2.26, 2.31, 2.31, 2.4, 2.8, 2.88, 2.98, 2.98, 2.73, 3.15, 3.64, 4.03, 3.09, 3.09, 2.9, 2.31, 2.07, 3.45, 6.28, 7.03, 7.69, 7.64, 6.14, 6.42, 7.82, 8.56, 7.93, 6.31, 4.95, 2.21, -1.47, -5.09, -5.06, -2.53, -2.17, -3.38, -3.32, -2.0, -1.41, -1.52, -1.35, -2.5, -2.5, -4.29, -6.87, -7.93, -6.43, -5.28, -2.21, 2.0, 4.02, 2.51, 0.0, -0.79, -10.13, -10.13, -9.76, -9.76, -9.76, -9.48, -9.35, -8.43, -8.15, -7.87, -6.95, -6.28, -3.32, -2.4, -2.4, -2.5, -2.68, -2.5, -3.07, -2.23, -2.12, -1.41, -0.88, -0.0, -0.0, -0.88, -1.6, -1.24, -1.6, -0.89, -0.89, -1.34, -3.13, -4.47, -6.85, -6.8, -6.07, -6.01, -6.32, -5.69, -4.4, -2.21, 0.0, 0.79, 0.0, 0.0, 1.4, 2.29, 3.72, 2.73, 2.73, 2.73, 2.73, 2.73, 2.88, 2.9, 2.26, 2.26, 3.06, 2.35, 2.3, 3.97, 6.79, 7.6, 7.69, 7.97, 7.18, 6.24, 5.94, 6.2, 6.4, 6.54, 7.7, 6.42, 2.28, -2.15, -2.68, -2.17, -1.86, -2.79, -5.06, -5.09, -3.43, -3.64, -4.46, -6.26, -8.63, -9.17, -9.31, -8.37, -6.31, -3.91, -0.57, 1.7, 1.79, 0.0, -1.52, -2.25, -10.13, -10.13, -9.76, -9.76, -9.76, -9.48, -9.1, -8.82, -8.43, -7.76, -7.48, -6.8, -3.32, -2.15, -3.35, -2.15, -2.5, -3.45, -3.83, -2.68, -0.51, -0.66, -0.66, -1.27, -1.6, -2.15, -3.22, -3.74, -3.51, -2.4, -0.89, 0.0, -0.95, -3.07, -4.66, -5.2, -5.2, -4.74, -2.41, -2.5, -3.58, -5.26, -5.75, -5.72, -3.35, 0.66, 3.16, 4.11, 4.43, 3.0, 2.8, 2.0, 2.73, 2.73, 2.2, 2.29, 2.2, 1.52, 1.58, 1.52, 2.15, 4.41, 5.64, 6.0, 6.07, 7.02, 6.05, 4.46, 2.8, 2.9, 3.07, 3.68, 4.24, 4.01, 3.18, 0.0, -1.2, -0.0, -1.26, -3.13, -6.0, -7.89, -6.94, -6.54, -8.46, -10.98, -11.83, -10.52, -9.48, -7.52, -4.36, -1.58, 0.6, 0.71, 0.0, -1.27, -2.97, -3.02, -10.13, -10.13, -9.76, -9.76, -9.76, -9.21, -9.1, -8.55, -8.43, -8.15, -7.87, -7.2, -3.74, -2.5, -3.16, -1.61, -1.88, -3.07, -4.11, -2.15, 0.57, 1.86, 0.89, -0.63, -1.86, -3.04, -3.95, -6.88, -5.75, -2.84, -2.6, -2.24, -2.6, -3.22, -4.11, -3.78, -4.52, -3.49, -1.6, -1.9, -3.95, -7.52, -8.24, -4.98, 0.0, 3.13, 3.82, 4.46, 3.72, 3.45, 1.33, 1.8, 2.0, 2.11, 2.11, 1.47, 1.41, 1.52, 1.49, 1.41, 2.21, 3.58, 3.53, 4.4, 3.84, 3.64, 4.5, 2.44, 0.0, 0.0, 0.0, 0.75, 0.0, 0.0, 0.0, 0.0, 0.0, 0.0, -0.6, -2.68, -3.07, -7.33, -8.67, -9.36, -10.26, -11.58, -11.2, -9.92, -8.6, -3.78, -1.26, 0.63, 0.57, -0.0, -0.57, -1.94, -3.61, -3.78, -9.76, -9.76, -9.76, -9.76, -9.76, -9.21, -9.48, -9.1, -8.82, -8.43, -8.15, -8.22, -6.36, -5.75, -4.8, -3.22, -3.84, -3.79, -2.73, -1.6, 0.0, 1.4, 1.4, 0.57, -0.63, -1.79, -3.51, -4.54, -5.37, -4.6, -5.29, -6.71, -6.64, -6.36, -4.12, -3.16, -3.22, -3.74, -1.26, -0.6, -2.6, -2.68, -1.34, -0.0, 1.6, 2.24, 2.12, 2.21, 2.79, 2.79, 3.22, 2.07, 2.0, 2.0, 1.35, 1.47, 0.72, 0.74, 0.74, 1.47, 2.84, 3.82, 2.8, 2.21, 1.4, 2.2, 2.23, 1.47, 0.0, -1.47, -0.74, -0.67, -1.51, -1.4, -1.38, -0.77, 0.0, -0.74, -1.41, -2.0, -1.88, -3.58, -5.78, -8.05, -9.29, -10.18, -10.0, -8.93, -5.31, -1.79, -0.0, 0.57, -0.51, -2.12, -2.23, -3.69, -4.4, -4.5, -9.76, -9.76, -9.5, -9.5, -9.76, -9.58, -9.21, -9.1, -9.1, -8.82, -8.43, -8.68, -8.0, -8.72, -7.21, -6.94, -7.35, -7.76, -6.8, -4.98, -2.8, -0.8, 0.0, 0.0, -0.89, -0.8, -1.2, -1.6, -3.16, -4.38, -5.36, -4.47, -3.58, -3.07, -3.2, -2.84, -2.41, -2.21, 0.0, 0.89, -0.0, -0.0, 0.6, 0.6, 1.2, 1.34, 1.79, 2.0, 2.5, 3.14, 2.84, 2.79, 2.0, 1.41, 0.73, 0.63, 0.0, 0.0, 0.0, 1.55, 4.12, 6.28, 6.8, 2.53, 1.4, 1.27, 1.49, 1.4, 0.0, -2.0, -3.0, -2.7, -2.81, -2.12, -1.44, -2.12, -2.37, -3.11, -2.83, -2.75, -2.48, -1.88, -2.91, -3.82, -3.82, -4.52, -5.6, -4.27, -1.7, -0.0, -0.54, -1.16, -3.14, -4.02, -4.09, -5.38, -5.41, -5.38, -9.76, -9.76, -9.3, -9.3, -9.58, -9.58, -9.21, -9.48, -9.1, -9.1, -9.1, -8.96, -8.82, -8.43, -7.35, -7.98, -9.36, -10.66, -10.47, -9.77, -7.15, -2.68, -1.34, -1.2, -0.8, -0.0, -0.0, -0.0, -1.6, -3.13, -2.68, -1.34, -0.45, -0.45, -1.26, -2.21, -1.6, -0.95, -0.0, 0.57, 1.9, 1.9, 1.7, 1.79, 1.79, 2.68, 3.13, 3.07, 2.91, 3.32, 3.14, 3.16, 2.79, 2.0, 1.27, 0.63, 0.0, 0.0, 0.0, 2.15, 6.28, 7.47, 6.0, 4.46, 4.09, 3.48, 3.0, 2.26, 0.0, -2.73, -4.56, -4.87, -4.24, -3.59, -2.76, -2.84, -3.53, -3.78, -3.88, -4.5, -3.32, -1.88, -1.2, -1.16, -1.16, -1.16, -1.84, -1.16, 0.0, 0.0, -1.27, -3.32, -4.73, -5.81, -7.06, -7.59, -6.97, -5.86, -9.76, -9.58, -9.3, -9.3, -9.3, -9.58, -9.21, -9.21, -9.21, -9.21, -9.48, -9.1, -9.1, -8.65, -8.0, -8.0, -8.27, -9.2, -10.01, -9.37, -7.58, -2.49, -0.54, -0.0, -0.0, -0.0, -0.0, 0.71, -0.0, -0.71, -0.71, -0.0, 0.57, 0.57, -0.0, -0.89, -0.63, -0.0, -0.0, 1.13, 2.51, 3.14, 3.32, 4.34, 4.34, 3.82, 3.51, 3.13, 3.13, 2.6, 2.4, 2.5, 2.53, 2.51, 1.8, 1.41, 2.04, 0.63, 0.0, 2.63, 7.12, 7.71, 6.0, 5.16, 6.21, 6.54, 6.7, 5.21, 2.11, 0.0, -2.0, -3.47, -3.93, -3.76, -3.87, -3.17, -3.19, -3.32, -4.28, -4.37, -2.15, -1.9, -1.88, -0.61, 0.0, 0.0, 0.0, 0.0, 0.0, 0.0, -1.24, -2.68, -4.3, -6.71, -8.14, -8.6, -7.52, -4.11, -9.58, -9.58, -9.3, -9.3, -9.3, -9.58, -9.76, -9.76, -9.76, -9.76, -9.76, -9.21, -9.21, -9.3, -8.73, -7.86, -6.95, -6.87, -7.48, -7.4, -5.81, -2.0, -0.0, -0.0, 0.61, 0.53, 0.61, 1.11, 0.61, -0.53, -0.59, -0.0, -0.0, -0.0, -0.0, -0.54, -0.53, -0.0, 0.66, 1.35, 2.0, 2.79, 3.45, 3.32, 3.04, 2.8, 2.5, 2.23, 1.6, 1.34, 0.89, 0.63, 0.57, 0.54, 0.65, 0.76, 1.8, 3.0, 0.0, 2.6, 6.26, 6.98, 6.66, 7.15, 7.15, 6.22, 7.06, 7.69, 5.69, 4.65, 3.43, 1.94, 0.0, -2.31, -3.69, -3.07, -2.35, -2.35, -2.8, -2.07, -2.4, -3.07, -4.74, -5.72, -1.33, -1.27, -1.27, -0.59, 0.0, 0.0, 0.0, -1.2, -3.13, -5.36, -8.67, -8.6, -5.3, -1.24, -9.58, -9.58, -9.3, -9.3, -9.3, -9.5, -9.76, -9.76, -9.76, -9.86, -9.5, -9.76, -9.5, -9.86, -9.37, -8.5, -7.59, -6.64, -6.28, -6.15, -5.08, -2.17, -0.63, -0.0, -0.0, -0.0, -0.0, -0.0, -0.0, -0.0, -0.54, -0.61, -0.0, -0.61, -1.2, -1.2, -0.61, -0.0, 0.66, 1.47, 1.41, 1.27, 1.4, 3.35, 3.35, 3.35, 1.24, 0.85, 0.71, 0.57, -0.0, 0.0, -0.45, 0.0, -0.63, -0.4, 0.0, 0.0, 0.0, 2.68, 4.4, 6.17, 7.08, 7.31, 5.32, 4.43, 3.98, 4.0, 6.18, 7.06, 8.68, 6.95, 2.82, 0.0, -1.52, 0.0, 0.0, 0.0, 0.0, -1.24, -3.04, -5.05, -6.98, -6.35, -4.37, -3.43, -2.48, -1.33, 0.0, 0.0, 0.0, -0.57, -1.61, -4.0, -5.95, -6.06, -1.84, 0.0, -9.58, -9.58, -9.3, -9.3, -9.66, -9.86, -9.86, -9.86, -9.86, -9.86, -9.86, -9.86, -9.86, -9.59, -9.66, -9.42, -8.5, -7.27, -6.92, -6.32, -5.69, -3.83, -1.88, -0.45, -0.0, -0.0, -0.0, -0.0, -0.0, -0.0, -0.0, -0.55, -0.85, -2.21, -2.21, -2.21, -1.2, -0.0, 1.03, 0.7, 0.73, 1.14, -0.0, -0.0, 1.4, 2.53, 2.84, 2.23, 1.41, 0.65, -0.0, -0.0, 0.0, 0.0, 0.0, 0.0, -1.34, -1.84, 0.0, 2.6, 2.21, 2.21, 2.53, 2.21, 2.8, 2.23, 1.34, 1.34, 2.6, 4.15, 5.72, 5.38, 2.31, 0.0, 0.0, 2.17, 2.8, 1.58, 0.0, -0.6, -2.91, -4.0, -4.12, -2.53, -3.2, -6.54, -3.72, -1.88, -0.54, -0.61, -0.57, -1.23, -2.0, -2.07, -2.98, -0.61, 0.0, 0.0, -9.58, -9.3, -9.3, -9.3, -9.66, -9.86, -9.86, -9.86, -9.86, -9.86, -9.86, -9.86, -9.59, -9.94, -9.66, -9.42, -9.08, -8.5, -7.59, -7.23, -6.64, -5.71, -4.12, -2.84, -1.79, -0.54, -0.0, 0.55, 0.54, 0.54, -0.0, -0.0, -1.27, -0.8, -0.95, -1.6, -0.0, 0.61, 1.98, 1.96, 0.66, -0.0, -0.0, -0.0, 1.27, 2.23, 2.48, 2.48, 2.23, 1.27, -0.0, -0.0, -0.0, 0.0, 0.0, 0.0, -0.45, -0.6, 0.6, 0.89, 0.57, 1.27, 2.23, 1.27, 0.71, -0.0, -0.0, 0.89, 2.68, 2.86, 1.27, 0.0, -0.74, 0.0, 1.2, 3.07, 3.39, 2.8, 0.95, -0.45, -1.79, -2.6, -1.86, -0.6, -0.63, -1.79, -3.98, -3.53, -2.4, -1.88, -2.48, -2.48, -1.84, -1.76, -2.04, -1.11, -1.16, -1.16, -9.58, -9.3, -9.3, -9.3, -9.66, -9.66, -9.86, -9.86, -9.86, -9.86, -9.86, -9.94, -9.94, -9.66, -10.01, -9.46, -9.13, -8.82, -7.9, -7.59, -6.95, -6.34, -5.1, -3.85, -2.86, -1.49, -0.8, -0.0, 0.54, 0.53, -0.0, -0.0, -0.57, -0.8, -0.95, -0.57, 0.59, 1.98, 1.05, 1.03, -0.0, -0.0, -0.0, 0.65, 1.08, 1.27, 1.27, 1.27, 1.27, 1.27, 0.99, -0.0, -0.0, -0.0, 0.0, 0.0, 0.0, 1.34, -0.0, -1.13, -0.0, -0.0, 1.27, 1.27, 1.27, 0.6, 0.89, -0.0, 0.0, 0.0, -3.17, -5.78, -6.05, -1.16, 0.89, 3.07, 3.98, 3.32, 1.86, 0.0, 0.0, -0.45, -0.45, 0.0, 0.0, -0.0, -2.68, -3.58, -3.32, -3.48, -3.78, -2.48, -2.51, -2.73, -2.8, -1.76, -1.84, -1.84, -9.3, -9.3, -9.3, -9.3, -9.3, -9.66, -9.66, -9.86, -9.86, -9.86, -9.86, -9.94, -9.94, -9.66, -10.01, -8.85, -9.13, -8.85, -8.5, -7.59, -6.97, -6.35, -5.72, -4.05, -2.77, -2.18, -2.21, -1.2, -0.0, -0.0, 0.58, 0.58, -0.0, -0.0, -0.0, 0.59, 0.76, -0.0, -0.0, -0.0, -0.0, -0.0, -0.0, -0.0, -0.0, 1.13, 1.13, 1.13, 1.27, 1.13, 0.99, -0.0, -0.0, -0.0, -0.0, 0.0, 0.0, 0.0, -0.0, -1.27, -1.27, -0.0, 1.13, 2.48, 2.4, 1.9, 1.86, 0.0, -3.32, -5.44, -4.98, -4.74, -3.35, -1.2, -0.0, 3.07, 3.58, 3.45, 2.51, 1.16, 0.65, 0.0, -0.45, -0.45, -1.2, -2.17, -3.58, -3.58, -4.73, -5.6, -4.46, -2.48, -3.15, -4.07, -3.64, -2.48, -2.51, -2.51, -9.3, -9.3, -9.3, -9.3, -9.3, -9.3, -9.37, -9.37, -9.59, -9.59, -9.59, -9.94, -9.94, -9.66, -9.66, -8.6, -8.82, -8.85, -7.9, -6.98, -6.63, -6.98, -6.35, -4.65, -2.98, -2.76, -3.47, -2.15, -1.2, -0.0, 0.58, 0.57, 1.12, 1.1, 1.73, 1.81, 0.61, -0.0, -0.72, -1.05, -0.66, -0.0, -0.0, -0.0, -0.0, -0.0, -0.0, 1.13, 1.13, 1.13, -0.0, 1.4, 1.2, 1.58, 1.26, 0.0, 0.0, -1.34, -1.26, -1.4, -0.0, -0.0, 2.23, 2.21, 2.79, 2.41, 2.21, 0.89, -1.88, -2.8, -1.0, 0.0, 0.0, 0.73, 0.0, 0.45, 0.6, 0.0, 0.63, 0.63, 0.0, -1.2, -2.24, -2.24, -2.68, -3.58, -3.98, -4.11, -7.28, -6.42, -4.93, -4.46, -5.37, -5.38, -4.43, -3.48, -3.16, -3.16, -9.3, -9.3, -9.3, -9.3, -9.3, -9.3, -9.37, -9.37, -9.37, -9.37, -9.59, -9.59, -9.66, -9.66, -9.72, -8.53, -8.53, -8.5, -7.68, -6.32, -6.14, -7.61, -7.6, -6.01, -5.37, -4.74, -4.46, -5.75, -4.43, -1.61, -0.0, 0.58, 1.12, 1.63, 1.73, 1.16, 0.57, -0.0, -0.54, -0.58, -0.55, -0.0, -0.0, -0.0, -0.0, -0.0, -0.0, -0.0, 0.99, 0.99, 1.4, 1.4, 1.2, 1.2, 0.6, 0.63, 0.0, 0.0, -0.45, -0.0, -0.0, 1.6, 3.48, 4.65, 2.5, 2.21, 1.9, 2.68, 1.6, 0.0, 0.78, 1.54, 2.34, 0.8, -1.54, -3.6, -4.12, -4.43, -1.41, -0.72, 0.0, -0.63, -2.4, -2.24, -2.68, -2.17, -1.49, -0.99, -3.7, -3.98, -6.21, -7.6, -7.68, -7.28, -6.25, -6.07, -5.09, -5.09, -9.3, -9.3, -9.3, -9.3, -9.3, -9.3, -9.37, -9.37, -9.37, -9.37, -9.37, -9.37, -9.42, -9.42, -9.72, -9.46, -8.85, -8.82, -8.15, -7.68, -7.27, -8.22, -8.53, -8.52, -8.15, -7.51, -6.79, -6.8, -5.57, -3.39, -0.59, -0.0, 0.58, 0.53, 1.12, 0.56, 0.59, -0.0, -0.0, -0.0, -0.0, -0.0, -0.0, 0.57, 0.59, -0.0, -0.0, -0.0, 0.99, 1.4, 1.4, 1.4, 1.4, 1.9, 1.58, 1.2, 1.2, 0.45, 0.0, 0.0, -0.0, 2.84, 4.65, 3.79, 2.23, 1.58, 1.86, 2.24, 2.8, 3.72, 4.0, 4.55, 4.01, 0.0, -4.71, -9.49, -12.01, -10.29, -6.68, -2.88, -0.71, 0.0, -1.16, -0.89, -0.45, 0.0, 0.45, 0.63, 0.0, -1.88, -4.93, -8.55, -8.24, -5.2, -5.44, -6.13, -5.2, -5.2, -9.3, -9.3, -9.3, -9.3, -9.3, -9.3, -9.02, -9.37, -9.37, -9.37, -9.37, -9.37, -9.42, -9.42, -9.46, -9.17, -9.13, -8.53, -8.82, -8.53, -7.93, -8.22, -8.82, -8.82, -8.78, -7.55, -6.87, -6.51, -6.1, -4.88, -2.5, -0.59, -0.0, -0.0, 0.59, 0.53, -0.0, -0.0, -0.0, -0.0, -0.0, -0.0, 0.53, 0.58, 1.16, 0.55, -0.0, -0.0, 1.2, 1.2, 1.2, 1.2, 1.4, 2.4, 1.58, 2.21, 1.9, 1.26, 0.0, 0.0, 0.0, 2.24, 3.07, 2.4, 1.26, 1.86, 1.86, 2.17, 3.13, 5.26, 6.88, 7.64, 6.33, 2.28, -8.88, -13.45, -15.05, -14.39, -11.73, -8.11, -4.29, -1.36, -0.7, -0.54, 0.0, 0.0, 0.0, -0.95, -2.51, -1.94, -4.94, -6.98, -4.09, -2.12, -2.24, -3.39, -4.0, -4.0, -8.94, -8.94, -8.94, -9.3, -9.3, -9.3, -9.02, -9.02, -9.37, -9.37, -9.08, -9.08, -9.42, -9.13, -9.46, -9.46, -9.46, -8.85, -8.56, -8.87, -8.24, -7.61, -7.61, -8.22, -8.5, -8.19, -6.95, -6.28, -6.41, -5.4, -4.02, -1.86, -0.53, -0.0, -0.0, -0.0, -0.0, -0.0, -0.0, -0.0, -0.0, 0.54, 1.07, 1.19, 1.73, 1.58, -0.0, 1.2, 1.2, 1.2, 1.0, 1.2, 1.2, 1.2, 2.0, 2.53, 2.5, 1.58, 0.45, 0.0, 0.0, 2.17, 3.58, 2.68, 2.24, 2.17, 2.17, 1.7, 2.6, 3.07, 3.04, 1.79, 0.72, 0.0, -4.02, -10.08, -13.6, -14.79, -14.11, -12.72, -9.05, -5.59, -2.2, -1.8, -2.21, -1.7, -1.7, -3.32, -4.12, -6.32, -5.59, -3.48, -0.99, 0.0, 0.0, -2.15, -3.35, -3.35, -8.94, -8.94, -8.94, -8.94, -9.3, -9.3, -8.78, -8.78, -9.12, -9.08, -9.08, -9.08, -9.42, -9.13, -9.46, -9.46, -9.46, -8.56, -8.87, -8.87, -8.59, -8.24, -7.61, -7.61, -8.22, -7.9, -7.59, -6.34, -6.01, -5.49, -4.8, -3.09, -1.7, -0.57, -0.54, -0.0, -0.0, -0.0, -0.0, -0.0, -0.0, 0.57, 1.11, 1.8, 2.23, 2.84, 2.21, 2.21, 1.9, 1.9, 2.0, 1.58, 1.0, 1.2, 1.2, 2.53, 1.88, 1.88, 1.6, 1.2, 1.24, 2.4, 2.63, 2.6, 2.24, 2.24, 2.24, 3.58, 2.17, 2.24, 0.63, -3.0, -1.47, 0.0, 0.0, -3.13, -7.81, -10.92, -12.93, -12.3, -11.52, -8.49, -5.37, -4.07, -4.09, -4.3, -4.3, -4.73, -6.0, -4.09, -3.16, -0.6, 0.63, 0.0, -0.6, -2.21, -2.79, -2.79, -8.94, -8.94, -8.94, -8.94, -8.73, -8.73, -8.78, -8.78, -8.78, -8.82, -9.08, -9.08, -9.42, -9.13, -9.46, -9.46, -9.13, -8.87, -8.58, -8.87, -8.59, -8.23, -8.24, -7.61, -7.61, -7.32, -7.6, -6.98, -6.06, -5.69, -5.01, -4.0, -2.68, -1.79, -1.34, -0.95, -0.8, -0.57, -0.0, -0.0, -0.0, 0.53, 1.16, 1.88, 2.79, 3.14, 3.14, 3.45, 3.07, 3.6, 3.2, 2.0, 1.26, 1.2, 1.4, 2.53, 2.23, 1.61, 1.49, 1.79, 2.21, 2.5, 2.6, 2.24, 2.24, 2.24, 2.63, 3.13, 2.63, 0.89, -2.15, -3.72, -2.1, 0.74, 2.25, 1.52, 0.0, -3.32, -8.37, -9.33, -10.18, -9.45, -7.54, -6.0, -4.66, -4.87, -4.88, -5.2, -4.73, -2.63, 0.0, 0.89, 0.0, 0.0, -1.0, -1.61, -1.88, -1.88, -8.73, -8.73, -8.73, -8.73, -8.73, -8.73, -8.73, -8.78, -8.78, -8.82, -8.82, -8.82, -9.13, -9.13, -9.46, -8.85, -8.85, -8.87, -8.87, -8.59, -8.87, -8.59, -8.23, -8.24, -7.33, -7.33, -6.98, -6.98, -6.63, -6.0, -5.38, -4.45, -3.48, -2.53, -1.58, -1.6, -1.34, -0.89, -0.89, -0.63, -0.0, 0.6, 1.26, 1.86, 2.4, 2.91, 3.53, 3.53, 3.39, 3.39, 3.39, 3.53, 2.0, 2.0, 1.98, 2.23, 2.23, 1.08, 0.98, 0.8, 2.12, 2.8, 2.6, 2.24, 1.79, 1.79, 3.07, 3.13, 1.7, 0.45, -1.26, -2.41, -1.44, 0.74, 3.83, 6.17, 4.08, -2.0, -4.73, -6.36, -8.91, -9.45, -8.66, -6.25, -4.77, -4.47, -4.47, -4.43, -3.13, -1.86, -1.7, 0.0, -1.2, -1.13, -1.13, -1.33, -1.16, -1.16, -8.73, -8.73, -8.73, -8.73, -8.73, -8.73, -8.73, -8.78, -8.78, -8.82, -8.82, -8.82, -8.85, -8.85, -8.85, -8.85, -8.85, -8.56, -8.58, -8.59, -8.87, -8.23, -8.23, -8.23, -7.87, -7.33, -6.97, -6.97, -6.98, -6.34, -5.72, -5.32, -4.45, -4.08, -3.04, -2.4, -1.76, -1.6, -1.16, -0.65, 0.0, 0.0, 1.0, 1.79, 2.68, 2.68, 3.13, 3.13, 3.13, 3.13, 3.53, 3.53, 3.53, 3.39, 1.9, 1.2, 1.27, -0.0, 0.59, 0.61, 1.26, 4.02, 4.92, 3.13, 3.58, 1.79, 3.07, 1.34, 0.0, 0.0, -1.7, -2.53, -2.8, -0.74, 3.16, 5.2, 3.1, -1.36, -3.82, -4.92, -6.36, -9.6, -8.93, -5.51, -4.44, -4.47, -4.47, -3.13, -1.49, -1.9, -2.91, -2.68, -2.23, -2.51, -1.8, -1.8, -1.6, -1.6, -8.38, -8.38, -8.38, -8.73, -8.73, -8.73, -8.73, -8.78, -8.78, -8.5, -8.82, -8.53, -8.85, -8.85, -8.85, -8.85, -8.85, -8.56, -8.58, -8.59, -8.59, -8.23, -8.23, -8.23, -7.59, -7.33, -7.22, -6.94, -6.96, -6.31, -5.92, -5.69, -5.06, -4.44, -3.37, -2.96, -2.32, -1.7, -1.19, -0.55, 0.0, 0.0, 1.11, 1.8, 2.48, 2.23, 2.51, 2.91, 3.07, 3.13, 3.13, 3.13, 3.58, 3.58, 3.39, 1.58, 0.99, 1.19, 0.66, 1.27, 1.4, 2.6, 3.58, 4.02, 2.68, 4.77, 2.68, -0.0, -1.2, -0.89, -1.2, -1.88, -3.72, -3.72, -1.47, -1.52, -3.14, -1.35, -1.79, -2.68, -2.79, -9.2, -10.55, -5.6, -3.58, -3.98, -4.3, -2.53, -1.2, -1.9, -1.9, -1.7, -2.79, -2.84, -2.51, -2.23, -1.8, -1.8, -8.38, -8.38, -8.38, -8.38, -8.73, -8.73, -8.73, -8.45, -8.78, -8.78, -8.82, -8.53, -8.85, -8.85, -8.85, -8.85, -8.56, -8.56, -8.58, -8.59, -8.23, -8.23, -8.23, -7.57, -7.59, -7.32, -7.19, -6.94, -6.53, -6.29, -5.89, -5.92, -5.04, -4.4, -3.97, -3.52, -2.89, -2.26, -1.76, -0.57, 0.0, 0.0, 1.07, 1.16, 1.16, 2.84, 2.44, 2.23, 2.23, 2.8, 2.63, 3.13, 3.13, 3.58, 3.58, 3.13, 1.26, 1.08, 1.27, 1.27, 1.16, 1.74, 1.9, 3.2, 3.32, 4.87, 4.02, 1.2, -0.6, -0.0, 0.0, 0.0, -0.74, -4.71, -9.62, -10.34, -8.37, -2.21, 0.63, 0.0, 0.0, -6.62, -9.3, -7.61, -2.24, -2.53, -3.15, -2.48, -2.23, -1.61, -0.54, -0.0, 0.0, -2.21, -2.23, -2.51, -2.23, -2.23, -8.38, -8.38, -8.38, -8.38, -8.73, -8.73, -8.73, -8.45, -8.78, -8.78, -8.5, -8.53, -8.53, -8.85, -8.85, -8.54, -8.24, -8.24, -8.24, -8.23, -8.23, -8.23, -7.59, -7.85, -7.32, -6.92, -6.92, -6.92, -6.53, -5.86, -5.64, -5.23, -5.02, -4.57, -4.12, -3.45, -2.83, -2.33, -1.69, -1.16, 0.0, 0.0, 0.57, 1.14, 1.84, 1.33, 1.33, 2.2, 1.76, 2.23, 2.51, 2.51, 2.91, 3.07, 3.09, 3.53, 3.13, 2.84, 1.13, 0.66, -0.0, -0.0, -0.0, 1.88, 3.84, 4.4, 4.87, 3.58, 1.2, 0.89, 0.89, 0.65, 2.31, 0.0, -6.9, -11.73, -9.22, -2.51, 0.0, 0.6, 0.0, -4.75, -7.55, -7.8, -3.82, -1.61, -2.44, -2.6, -1.94, -0.57, 0.59, 0.54, 0.63, -0.95, -1.24, -1.61, -1.8, -1.8, -8.15, -8.15, -8.15, -8.38, -8.73, -8.73, -8.73, -8.45, -8.45, -8.78, -8.5, -8.5, -8.24, -8.24, -8.24, -7.95, -8.24, -8.24, -8.24, -8.23, -8.23, -7.59, -7.59, -7.59, -7.32, -6.92, -6.92, -6.27, -5.62, -5.86, -5.86, -5.2, -5.2, -4.76, -4.08, -4.12, -3.3, -2.3, -1.67, -1.14, -0.58, 0.0, 0.56, 0.57, 1.14, 1.33, 1.49, 1.84, 2.2, 2.44, 2.22, 2.48, 2.84, 3.07, 2.91, 2.91, 3.32, 3.13, 2.23, -0.0, -0.61, -0.65, -0.0, 2.79, 2.79, 3.49, 3.45, 3.13, 2.8, 2.21, 1.2, 0.45, 1.33, 4.0, 0.0, -6.37, -8.61, -4.03, -1.13, -1.16, -1.61, -2.68, -5.35, -6.01, -5.35, -4.02, -3.78, -1.94, -0.61, 0.7, 1.76, 1.16, 1.2, 0.4, -0.57, -0.65, -1.16, -1.16, -8.15, -8.15, -8.15, -8.15, -8.15, -8.73, -8.73, -8.45, -8.45, -8.45, -8.5, -8.5, -8.24, -8.24, -7.95, -7.95, -8.24, -7.96, -8.24, -7.59, -7.59, -7.59, -7.59, -7.59, -7.19, -7.19, -6.68, -6.29, -5.41, -5.23, -5.2, -5.17, -5.2, -4.54, -4.08, -3.91, -3.45, -2.8, -2.3, -1.12, -0.57, 0.0, 0.0, 0.56, 0.57, 1.12, 1.12, 1.8, 1.84, 2.4, 2.2, 2.44, 2.22, 2.48, 2.51, 3.07, 3.07, 2.91, 2.68, 0.61, -0.53, -0.54, 1.9, 2.53, 2.79, 3.07, 2.51, 1.49, 1.34, 1.58, 0.45, -0.0, 0.0, 1.0, 1.56, -1.59, -4.46, -3.32, -2.53, -1.73, -1.11, -0.53, -0.61, -2.32, -3.4, -3.64, -3.49, -2.5, 0.0, 1.26, 2.23, 1.84, 1.26, 1.2, 0.0, 0.0, -0.51, -0.51, -8.15, -8.15, -8.15, -8.15, -8.15, -8.15, -8.49, -8.19, -8.19, -8.19, -8.5, -8.5, -8.24, -8.24, -7.95, -7.95, -7.95, -7.6, -7.87, -7.59, -7.59, -7.59, -7.33, -6.94, -7.19, -6.94, -6.53, -6.29, -5.89, -4.6, -4.57, -4.54, -4.72, -4.54, -3.89, -3.42, -2.9, -2.93, -2.28, -1.75, -1.12, -0.57, 0.0, 0.0, 0.56, 0.61, 1.12, 1.12, 1.67, 1.7, 1.88, 2.2, 2.2, 2.22, 2.48, 2.23, 2.51, 2.79, 2.5, 2.12, 0.63, 1.2, 3.2, 3.2, 4.11, 3.79, 2.3, 1.16, 0.8, 0.45, 0.0, -1.0, -1.7, -2.79, -2.37, -0.78, -1.61, -1.16, 0.0, 0.0, 0.65, 1.32, 0.64, 0.0, -0.59, -1.73, -1.73, -1.73, 0.0, 1.27, 2.6, 2.4, 1.26, 0.63, 0.0, 0.0, 0.0, 0.0, -8.15, -8.15, -8.15, -8.15, -8.15, -8.15, -8.49, -8.19, -8.19, -8.19, -8.22, -8.22, -8.22, -8.24, -7.95, -7.95, -7.61, -7.6, -7.6, -7.59, -7.59, -6.94, -6.94, -6.94, -6.94, -6.94, -6.53, -6.29, -6.29, -5.64, -5.23, -4.54, -4.05, -4.05, -3.39, -3.57, -2.9, -2.25, -2.28, -1.65, -1.12, -0.56, 0.0, 0.0, 0.0, 0.0, 0.56, 1.1, 1.12, 1.14, 1.16, 1.73, 1.73, 1.73, 1.94, 2.22, 2.48, 2.23, 2.53, 2.53, 0.95, 0.89, 3.13, 3.72, 2.84, 2.15, 2.84, 2.15, 1.58, 1.58, 0.89, 0.0, -2.8, -6.32, -6.31, -1.59, 0.74, 1.33, 2.07, 2.12, 1.33, 0.0, 0.0, 0.0, 0.0, -0.56, -1.16, -0.59, 0.0, 1.19, 2.79, 2.24, 1.2, 0.0, 0.0, 0.0, 0.0, 0.0, -8.15, -8.15, -8.15, -8.15, -8.15, -8.15, -8.15, -8.19, -8.19, -8.19, -7.9, -8.22, -8.22, -7.93, -7.93, -7.61, -7.61, -7.6, -7.6, -7.33, -6.94, -6.94, -6.94, -6.94, -6.53, -6.53, -6.29, -6.29, -6.29, -5.86, -5.2, -4.54, -4.05, -3.89, -3.39, -2.9, -2.9, -2.25, -1.81, -1.73, -1.11, -0.56, 0.0, 0.0, 0.0, 0.0, 0.55, 0.59, 0.56, 1.12, 1.14, 1.16, 1.16, 1.7, 1.73, 1.94, 2.22, 2.48, 1.8, 1.8, 2.23, 1.26, 3.13, 2.84, 2.84, 2.23, 2.15, 2.53, 1.9, 2.6, 2.24, 1.9, 0.0, -2.31, -3.75, 0.0, 4.01, 6.37, 4.58, 1.58, -0.72, -2.76, -2.71, -2.06, -1.33, -1.16, -1.14, 0.0, 0.0, 1.3, 2.51, 2.63, 1.34, 0.0, 0.0, 0.0, 0.0, 0.0, -7.81, -7.81, -8.15, -8.15, -8.15, -8.15, -8.15, -7.86, -8.19, -8.19, -8.19, -8.22, -8.22, -7.93, -7.93, -7.93, -7.61, -7.6, -7.6, -7.33, -6.94, -6.94, -6.94, -6.94, -6.53, -6.53, -6.29, -5.86, -5.64, -5.64, -5.2, -4.54, -4.54, -3.89, -3.57, -2.9, -2.9, -2.25, -1.71, -1.73, -1.11, -0.59, 0.0, 0.0, 0.0, 0.0, 0.58, 0.58, 0.59, 0.56, 1.12, 1.14, 1.16, 1.16, 1.7, 1.73, 1.76, 1.76, 1.76, 1.8, 1.8, 1.88, 2.68, 1.26, 1.26, 2.53, 2.21, 2.53, 2.21, 1.9, 1.6, 3.58, 3.22, 2.25, 0.0, 0.0, 2.32, 3.93, 3.2, 0.7, -2.15, -3.46, -2.8, -1.76, -1.19, -0.64, 0.0, 0.0, 0.67, 1.19, 2.0, 2.79, 1.7, 0.0, 0.0, 0.0, 0.0, 0.0, -7.81, -7.81, -7.81, -8.15, -8.15, -8.15, -8.15, -7.86, -7.86, -8.19, -8.19, -7.9, -8.22, -7.93, -7.61, -7.61, -7.61, -7.33, -7.6, -7.22, -6.94, -6.7, -6.7, -6.29, -6.53, -6.29, -5.86, -5.64, -5.64, -5.44, -5.23, -4.76, -4.57, -4.08, -3.57, -3.42, -2.9, -2.25, -2.28, -1.73, -1.11, -1.12, -0.57, 0.0, 0.0, 0.0, 0.0, 0.0, 0.0, 0.56, 0.57, 1.14, 1.16, 1.16, 1.07, 1.19, 1.23, 1.23, 1.11, 1.58, 1.76, 1.8, 1.34, 1.2, 1.2, 2.21, 2.5, 3.07, 2.5, 2.15, 2.4, 2.6, 3.2, 4.54, 2.35, 0.0, -1.5, -1.58, -1.54, -2.08, -2.12, -0.67, -1.13, -1.2, -0.53, 0.0, 0.0, 0.61, 0.61, 1.35, 1.76, 1.8, 1.88, 0.6, 0.0, -0.8, -0.54, 0.0, -7.81, -7.81, -7.81, -7.81, -8.15, -8.15, -8.15, -7.86, -7.86, -8.19, -8.19, -7.9, -7.6, -7.61, -7.61, -7.61, -7.61, -7.61, -6.96, -6.96, -6.96, -6.96, -6.29, -6.29, -6.29, -5.86, -5.86, -5.64, -5.2, -5.23, -4.76, -4.57, -4.08, -4.08, -3.42, -3.42, -2.77, -2.93, -2.28, -2.28, -1.75, -1.12, -1.14, 0.0, 0.0, 0.0, -0.58, 0.0, 0.0, 0.0, 0.0, 0.58, 0.59, 0.54, 0.61, 0.55, 0.55, 0.57, 1.11, 1.11, 1.23, 1.11, 0.8, 1.34, 1.2, 3.2, 3.72, 2.5, 2.5, 2.8, 2.4, 2.12, 2.12, 2.99, 3.87, 2.37, 0.0, -3.73, -5.57, -5.01, -2.06, -0.65, 0.0, 0.0, 0.0, 0.53, 0.57, 1.35, 1.19, 1.35, 1.23, 1.76, 1.8, 0.65, 0.0, -1.26, -1.24, -0.54, -7.81, -7.81, -7.81, -7.81, -7.81, -8.15, -7.88, -7.59, -7.59, -7.86, -7.59, -7.6, -7.6, -7.32, -7.61, -7.61, -7.61, -7.33, -6.96, -6.96, -6.96, -6.56, -6.29, -6.29, -5.86, -5.86, -5.64, -5.2, -5.23, -4.76, -4.76, -4.57, -4.08, -3.91, -3.42, -3.42, -2.77, -2.93, -2.28, -2.28, -1.75, -1.67, -1.14, -1.16, 0.0, -0.57, -0.58, -0.59, -0.56, 0.0, 0.0, 0.0, 0.0, 0.0, 0.0, 0.0, 0.55, 0.57, 0.66, 1.27, 1.11, 1.11, 1.33, 0.63, 2.68, 2.53, 1.24, 1.9, 2.5, 2.5, 2.4, 1.86, 0.89, 1.2, 5.2, 7.2, 4.71, 0.0, -3.91, -4.12, -2.04, -1.19, 0.0, 0.59, 1.16, 1.13, 1.23, 1.3, 1.41, 1.3, 1.35, 1.23, 1.23, 0.66, 0.0, -1.24, -1.9, -1.24, -7.81, -7.81, -7.81, -7.55, -7.55, -7.55, -7.55, -7.59, -7.59, -7.59, -7.59, -7.6, -7.6, -7.32, -7.61, -7.61, -7.61, -7.61, -6.97, -6.7, -6.56, -6.56, -6.31, -5.64, -5.64, -5.64, -5.2, -5.2, -5.23, -4.76, -4.57, -4.08, -4.08, -3.42, -3.42, -3.42, -2.77, -2.93, -2.28, -2.28, -2.3, -1.67, -1.69, -1.69, -1.14, -0.79, -0.58, -0.59, -0.61, -0.57, -0.58, 0.0, 0.0, 0.0, 0.0, 0.0, 0.0, 0.57, 0.59, 0.66, 0.57, 1.11, 1.0, 0.95, 1.79, 2.4, 1.26, 2.84, 2.5, 2.86, 2.15, 1.58, -0.0, 0.0, 1.49, 5.4, 6.31, 3.93, 0.0, -2.4, -1.79, -0.6, 0.51, 1.23, 1.3, 1.3, 0.59, 0.0, 0.0, 0.69, 0.67, 0.67, 0.0, 0.0, 0.0, -0.7, -1.88, -1.88, -7.81, -7.81, -7.55, -7.55, -7.55, -7.55, -7.55, -7.59, -7.59, -7.59, -7.59, -7.3, -7.6, -7.6, -7.32, -7.61, -7.61, -7.26, -6.97, -6.97, -6.31, -6.31, -5.89, -5.89, -5.64, -5.2, -5.2, -5.0, -4.76, -4.76, -4.57, -4.08, -3.91, -3.91, -3.42, -3.42, -2.77, -2.93, -2.28, -2.28, -2.3, -1.67, -1.78, -1.69, -1.69, -1.2, -0.57, -0.55, -0.59, -0.56, -0.57, 0.0, 0.0, 0.0, 0.0, 0.0, 0.0, 0.0, 0.57, 0.59, 0.66, 0.57, 0.59, 0.0, 0.89, 2.4, 2.53, 3.35, 2.86, 2.53, 1.9, 1.26, -0.0, 0.0, -0.63, -0.79, 0.76, 3.89, 3.87, 1.11, 0.6, 1.61, 2.04, 2.17, 0.71, 0.0, -0.69, -0.69, -0.69, 0.0, 0.0, 0.0, -0.71, -0.76, -1.52, -1.41, -1.41, -1.41, -8.08, -8.08, -7.55, -7.55, -7.55, -7.55, -7.55, -7.55, -7.59, -7.59, -7.59, -7.3, -7.6, -7.6, -7.32, -7.32, -6.98, -6.98, -6.71, -6.97, -6.58, -6.31, -5.89, -5.89, -5.64, -5.2, -5.2, -5.0, -4.76, -4.76, -4.57, -4.57, -3.91, -3.91, -3.42, -3.42, -2.77, -2.93, -2.28, -2.28, -2.3, -1.75, -1.67, -1.69, -1.14, -1.14, -0.57, -0.54, -0.58, -0.59, 0.0, 0.0, 0.0, 0.0, 0.0, 0.0, 0.0, 0.0, 0.0, 0.0, 0.66, 0.66, 0.59, 0.0, 0.0, 1.9, 2.73, 3.48, 2.53, 2.53, 1.9, 1.26, -0.0, -0.89, -2.4, -3.14, -1.52, 1.54, 5.47, 7.22, 8.5, 8.68, 7.0, 4.17, 0.71, -0.65, -1.19, -1.94, -1.73, -2.04, -1.41, -1.45, -1.4, -2.26, -1.52, -1.41, -1.41, -1.41, -7.85, -7.85, -7.55, -7.55, -7.55, -7.55, -7.55, -7.55, -7.27, -7.59, -7.59, -7.3, -7.3, -7.6, -6.98, -6.98, -6.98, -6.98, -6.98, -6.33, -6.33, -6.33, -5.67, -5.67, -5.44, -5.2, -5.0, -5.0, -4.76, -4.76, -4.57, -4.57, -3.91, -3.91, -4.12, -3.45, -3.45, -2.93, -2.8, -2.28, -2.3, -2.3, -1.67, -1.78, -1.69, -1.14, -1.14, -0.57, -0.58, -0.55, 0.0, 0.0, -0.57, -0.58, -0.58, 0.0, 0.0, 0.0, 0.0, 0.0, 0.0, 0.66, 0.66, 0.61, 0.0, 0.95, 2.2, 2.3, 2.07, 1.88, 1.49, 0.57, -0.0, -0.89, -1.86, -1.88, -1.41, 0.74, 3.79, 8.62, 13.32, 14.15, 10.27, 6.43, 2.71, 0.0, -0.61, -1.6, -2.48, -2.48, -2.26, -1.23, -1.27, -1.33, -0.53, -0.57, -0.57, -0.57, -7.85, -7.85, -7.55, -7.55, -7.55, -7.55, -7.55, -7.55, -7.27, -7.27, -7.59, -7.59, -7.3, -6.98, -7.27, -6.98, -6.98, -6.98, -6.98, -6.61, -6.33, -6.33, -5.92, -5.67, -5.23, -5.23, -5.23, -4.76, -4.76, -4.76, -4.57, -4.57, -3.91, -4.12, -4.12, -3.45, -3.45, -2.93, -2.8, -2.8, -2.3, -2.3, -2.19, -1.78, -1.69, -1.69, -1.14, -1.14, -1.16, -0.59, -0.56, -0.56, -0.57, -0.57, -0.58, 0.0, 0.0, 0.0, 0.0, 0.0, 0.0, 0.0, 0.59, 0.59, 0.65, 0.0, 2.23, 1.33, 1.27, 1.33, 0.65, -0.0, -0.0, -0.0, 0.0, 0.0, 0.0, 0.73, 3.19, 7.12, 11.7, 11.69, 8.87, 7.13, 4.86, 2.04, 0.0, -0.54, -1.9, -2.53, 0.0, 0.0, 0.0, 0.0, 0.0, -0.0, -0.0, -0.0, -7.51, -7.51, -7.23, -7.55, -7.55, -7.55, -7.55, -7.27, -7.27, -7.27, -6.97, -7.28, -6.98, -6.98, -6.98, -6.7, -6.98, -6.98, -6.61, -6.61, -6.33, -6.33, -5.92, -5.92, -5.67, -5.23, -5.23, -4.76, -4.76, -4.57, -4.57, -4.08, -3.91, -4.12, -3.94, -3.45, -3.45, -3.3, -2.8, -2.97, -2.3, -2.3, -2.19, -2.33, -1.69, -1.69, -1.69, -1.14, -1.16, -1.09, -1.18, -1.1, -1.2, -0.57, -0.53, -0.59, -0.54, 0.0, 0.0, 0.0, 0.0, 0.0, 0.0, 0.0, 0.59, 0.0, 1.58, 1.27, 1.14, -0.0, -0.0, -0.0, -0.0, -0.0, -0.0, 0.0, 0.0, 1.41, 4.6, 7.02, 8.22, 8.62, 7.95, 7.91, 7.08, 1.76, 0.0, 0.0, -0.0, -0.0, 0.63, 1.34, 1.2, 0.0, -0.63, -0.45, -0.45, -0.45, -7.51, -7.51, -7.23, -7.23, -7.23, -7.55, -7.27, -6.97, -6.97, -6.97, -6.97, -6.97, -6.98, -6.98, -6.98, -6.98, -6.7, -6.34, -6.34, -6.34, -6.34, -6.08, -5.69, -5.69, -5.92, -5.23, -5.23, -5.23, -4.57, -4.57, -4.57, -4.08, -3.91, -4.12, -3.94, -3.45, -3.45, -3.3, -2.97, -2.97, -2.83, -2.3, -2.19, -2.33, -2.21, -1.69, -1.69, -1.69, -1.16, -1.09, -1.18, -1.1, -1.2, -1.12, -0.58, -0.59, -0.54, -0.61, -0.55, 0.0, 0.0, 0.0, 0.0, 0.0, 0.0, 0.0, 0.89, 1.2, 1.19, 0.61, 0.7, -0.0, -0.0, -0.0, -0.0, 0.0, 0.63, 2.21, 6.08, 7.06, 6.95, 6.9, 9.31, 10.17, 7.76, 1.61, -0.0, -0.0, 0.6, 0.6, 0.99, 1.86, 1.7, 0.45, -0.45, -0.89, -0.89, -0.89, -7.51, -7.51, -6.95, -6.95, -6.95, -6.95, -7.27, -6.97, -6.97, -6.97, -6.97, -6.97, -6.97, -6.69, -6.98, -6.63, -6.34, -6.34, -6.34, -6.34, -6.34, -5.69, -5.69, -5.69, -5.69, -5.26, -5.02, -5.02, -4.57, -4.57, -4.57, -3.91, -3.91, -4.12, -3.94, -3.45, -3.45, -3.49, -3.49, -2.97, -2.83, -2.83, -2.33, -2.33, -2.21, -2.21, -1.69, -1.69, -1.71, -1.71, -1.73, -1.1, -1.2, -1.12, -1.14, -1.16, -0.54, -0.61, -0.55, -0.63, -0.57, 0.0, 0.0, 0.0, 0.0, 0.0, 0.0, 0.0, 1.2, 1.58, 1.61, 1.2, -0.0, -0.0, -0.0, 0.32, 1.34, 2.6, 4.66, 6.07, 6.01, 6.42, 9.1, 9.54, 7.11, 1.94, 1.16, 1.49, 1.34, 0.89, -0.0, 1.58, 2.4, 1.2, 0.0, -0.89, -0.89, -0.89, -7.25, -6.95, -6.95, -6.95, -6.95, -6.95, -6.95, -6.67, -6.97, -6.97, -6.97, -6.97, -6.97, -6.69, -6.35, -6.63, -6.34, -6.34, -6.34, -6.34, -6.34, -5.95, -5.69, -5.69, -5.69, -5.26, -5.26, -5.26, -4.8, -4.8, -4.6, -4.12, -4.12, -4.12, -3.94, -3.45, -3.45, -3.49, -3.49, -2.83, -2.83, -2.83, -2.86, -2.86, -2.33, -2.21, -2.21, -2.37, -1.71, -1.71, -1.73, -1.63, -1.76, -1.23, -1.14, -1.16, -1.07, -0.61, -0.55, -0.55, -0.63, -0.57, 0.0, 0.0, 0.0, 0.0, 0.0, 0.0, 0.8, 1.34, 1.27, 1.6, 1.26, -0.0, -0.0, 0.63, 1.34, 2.68, 3.07, 3.6, 4.43, 5.37, 5.94, 5.4, 4.62, 0.63, 2.53, 1.86, 1.34, 0.54, 0.0, 1.34, 2.4, 1.2, -0.0, -0.95, -0.95, -0.95, -6.95, -6.95, -6.95, -6.95, -6.95, -6.95, -6.95, -6.67, -6.97, -6.97, -6.97, -6.97, -6.64, -6.35, -6.35, -6.35, -6.35, -6.34, -6.34, -6.34, -6.34, -5.95, -5.95, -5.69, -5.69, -5.26, -5.26, -5.26, -4.8, -4.6, -4.6, -4.6, -4.12, -3.94, -3.94, -3.94, -3.45, -3.49, -3.49, -3.32, -2.83, -2.83, -2.86, -2.86, -2.86, -2.71, -2.37, -2.37, -2.37, -2.23, -1.73, -1.73, -1.76, -1.23, -1.14, -1.16, -1.16, -1.19, -1.19, -0.55, -0.63, -0.57, -0.57, -0.57, -0.57, -0.66, -0.57, -0.63, 0.0, 0.0, 0.45, 1.2, 1.79, 1.34, 0.57, 0.6, 1.34, 1.79, 2.17, 2.91, 3.14, 4.11, 4.29, 3.02, -0.69, 1.61, 3.39, 2.0, 0.0, 0.0, 0.0, 1.26, 2.24, 1.2, -0.0, -1.24, -1.24, -1.24, -6.64, -6.64, -6.95, -6.95, -6.95, -6.95, -6.67, -6.67, -6.67, -6.67, -6.35, -6.64, -6.64, -6.35, -6.35, -6.35, -6.35, -6.08, -6.34, -6.34, -5.95, -5.95, -5.95, -5.95, -5.95, -5.69, -5.26, -5.26, -5.26, -4.6, -4.6, -4.6, -4.6, -3.94, -3.94, -4.16, -3.49, -3.49, -3.49, -3.32, -3.32, -2.83, -3.01, -2.86, -2.86, -2.71, -2.89, -2.37, -2.37, -2.23, -2.26, -2.26, -1.76, -1.8, -1.14, -1.14, -1.16, -1.07, -1.19, -1.08, -1.08, -0.63, -0.57, -0.57, -0.63, -0.57, -0.71, -0.8, -0.89, -0.45, 0.0, 0.0, 0.63, 1.2, 1.2, 0.63, 0.89, 1.79, 2.12, 1.86, 2.5, 3.16, 3.55, 0.0, -1.39, 2.4, 4.3, 2.63, 0.0, -0.63, 0.0, 1.2, 1.79, 1.2, -0.0, -1.2, -1.2, -1.2, -6.64, -6.64, -6.64, -6.65, -6.65, -6.35, -6.35, -6.35, -6.35, -6.35, -6.35, -6.35, -6.35, -6.35, -6.35, -6.35, -6.35, -6.08, -5.7, -5.7, -5.95, -5.95, -5.95, -5.95, -5.7, -5.7, -5.04, -5.04, -5.04, -5.04, -4.6, -4.6, -4.6, -4.4, -4.16, -4.16, -3.97, -3.49, -3.49, -3.32, -3.32, -3.01, -3.01, -2.86, -2.86, -2.86, -2.89, -2.89, -2.37, -2.23, -2.4, -2.26, -1.76, -1.8, -1.67, -1.67, -1.16, -1.16, -1.19, -1.19, -1.08, -1.23, -1.23, -0.63, -0.63, -0.55, -1.11, -1.49, -0.89, -0.63, -0.89, -0.89, -0.45, 0.45, 1.2, 1.2, 1.34, 1.34, 1.26, 1.26, 1.58, 2.23, 3.07, 1.61, 0.0, 2.6, 4.93, 3.39, 0.99, -0.0, -0.0, 0.63, 0.89, 0.63, -0.0, -0.61, -0.61, -0.61, -6.64, -6.64, -6.64, -6.65, -6.65, -6.35, -6.35, -6.35, -6.35, -6.35, -6.35, -6.35, -6.35, -6.08, -6.35, -6.35, -5.98, -5.98, -5.7, -5.7, -5.7, -5.7, -5.7, -5.7, -5.7, -5.7, -5.29, -5.29, -5.04, -5.04, -5.04, -4.6, -4.63, -4.63, -4.16, -4.16, -3.97, -3.97, -3.97, -3.32, -3.52, -3.52, -2.86, -2.86, -2.86, -2.86, -2.71, -2.89, -2.37, -2.37, -2.23, -2.26, -2.29, -2.32, -1.8, -1.67, -1.84, -1.7, -1.16, -1.19, -1.19, -1.08, -1.23, -1.23, -1.23, -0.55, -0.63, -0.85, -0.63, -0.57, -1.24, -0.99, -0.57, -0.0, 1.26, 1.2, 0.63, 0.0, 0.0, 0.0, 0.6, 0.71, 2.23, 3.13, 2.21, 1.79, 3.14, 3.45, 1.84, -0.0, -0.51, -0.0, 0.63, 0.63, -0.0, -0.53, -0.53, -0.53, -6.64, -6.64, -6.64, -6.34, -6.65, -6.65, -6.35, -6.35, -6.35, -6.35, -6.35, -6.35, -6.08, -6.08, -6.35, -5.98, -5.98, -5.98, -5.7, -5.7, -5.7, -5.7, -5.7, -5.7, -5.29, -5.29, -5.29, -5.29, -5.29, -5.04, -5.29, -4.84, -4.63, -4.63, -4.63, -4.63, -3.97, -3.97, -4.2, -4.0, -3.52, -3.52, -3.35, -2.86, -2.86, -2.86, -2.71, -2.89, -2.37, -2.37, -2.23, -2.4, -2.29, -2.29, -2.32, -1.67, -1.84, -1.7, -1.7, -1.73, -1.73, -1.19, -1.08, -1.08, -1.23, -1.08, -0.55, -0.65, -0.6, -0.7, -0.65, -0.54, -0.0, 0.6, 1.2, 1.2, 0.63, -0.45, -0.89, -0.63, -0.63, 0.0, 0.0, 0.77, 1.48, 0.0, 2.21, 3.49, 1.84, -0.0, -0.63, -0.0, 0.57, -0.0, -0.0, -0.0, -0.0, -0.0, -6.64, -6.64, -6.34, -6.34, -6.34, -6.65, -6.35, -6.35, -6.35, -6.35, -6.0, -6.0, -5.72, -5.72, -5.72, -5.72, -5.72, -5.98, -5.98, -5.7, -5.7, -5.7, -5.29, -5.29, -5.29, -5.29, -5.29, -5.29, -5.29, -5.29, -4.84, -4.63, -4.63, -4.63, -4.63, -4.42, -3.97, -4.2, -4.0, -4.0, -3.52, -3.52, -3.35, -3.35, -3.56, -3.05, -2.89, -2.89, -2.89, -2.37, -2.37, -2.4, -2.44, -2.29, -2.32, -2.32, -2.16, -1.84, -1.7, -1.7, -1.73, -1.73, -1.73, -1.57, -1.08, -1.08, -1.08, -1.16, -0.63, -0.0, -0.0, -0.0, -0.0, -0.0, 0.45, 0.45, 0.0, -0.45, -1.34, -1.34, -2.12, -2.15, -2.0, -2.17, -0.75, -1.35, 0.63, 2.79, 2.21, -0.0, -0.57, -0.7, -0.0, -0.0, -0.57, -0.0, -0.0, -0.0, -6.34, -6.34, -6.34, -6.34, -6.34, -6.34, -6.35, -6.35, -6.35, -6.35, -6.0, -6.0, -5.72, -5.72, -5.72, -5.72, -5.72, -5.72, -5.98, -5.7, -5.7, -5.29, -5.29, -5.29, -5.29, -5.29, -5.29, -5.29, -5.29, -5.29, -4.63, -4.63, -4.63, -4.63, -4.63, -4.42, -4.2, -4.2, -4.0, -4.0, -4.0, -3.52, -3.35, -3.56, -3.56, -3.37, -3.37, -2.89, -2.89, -2.89, -2.89, -2.92, -2.75, -2.96, -2.29, -2.32, -2.32, -2.36, -2.36, -2.18, -1.88, -1.73, -1.73, -1.73, -1.73, -1.73, -1.73, -1.8, -1.2, -0.0, -0.0, -0.0, -0.0, -0.0, -0.45, -0.45, 0.0, -0.89, -1.34, -1.79, -2.24, -2.91, -3.16, -3.8, -3.04, -3.06, -1.26, 1.9, 1.9, 0.54, -0.0, -0.63, -1.8, -1.9, -1.24, -0.54, -0.54, -0.54, -6.34, -6.34, -6.34, -6.34, -6.34, -6.34, -6.06, -6.35, -6.35, -6.0, -6.0, -6.0, -5.72, -5.72, -5.72, -5.72, -5.72, -5.72, -5.72, -5.72, -5.06, -5.06, -5.29, -5.29, -5.29, -5.29, -5.29, -5.06, -5.06, -5.06, -4.63, -4.63, -4.63, -4.63, -4.63, -4.42, -4.2, -4.0, -4.0, -4.0, -4.0, -4.0, -3.35, -3.56, -3.56, -3.37, -3.37, -3.37, -3.37, -2.89, -2.89, -2.92, -2.92, -2.75, -2.77, -2.29, -2.32, -2.32, -2.36, -2.36, -2.4, -2.4, -2.2, -1.73, -1.73, -1.73, -1.73, -1.76, -1.88, -1.34, -0.8, -0.6, -0.6, -0.95, -1.2, -1.2, -1.2, -0.63, -0.89, -1.79, -2.24, -3.07, -3.49, -4.37, -3.87, -3.82, -2.23, -0.0, 0.8, -0.0, -0.0, -1.33, -2.51, -2.53, -1.88, -1.2, -1.2, -1.2, -6.34, -6.34, -6.34, -6.34, -6.34, -6.34, -6.06, -6.06, -5.72, -5.72, -6.0, -6.0, -5.72, -5.72, -5.72, -5.72, -5.72, -5.72, -5.72, -5.32, -5.32, -5.06, -5.06, -5.06, -5.06, -5.06, -5.06, -5.06, -5.06, -5.06, -4.63, -4.63, -4.63, -4.63, -4.42, -4.66, -4.2, -4.0, -4.0, -4.0, -4.0, -4.0, -3.8, -3.56, -3.56, -3.37, -3.37, -3.37, -3.37, -3.37, -3.37, -2.92, -2.92, -2.75, -2.96, -2.77, -3.0, -2.32, -2.32, -2.36, -2.18, -2.4, -2.4, -2.2, -2.2, -2.2, -2.2, -2.2, -2.48, -1.9, -1.2, -0.8, -0.6, -1.26, -1.26, -1.26, -1.26, -0.63, -0.63, -1.34, -2.24, -3.53, -4.09, -4.37, -3.96, -3.17, -3.15, -1.61, -0.45, -0.32, -0.6, -1.2, -2.15, -2.53, -1.88, -1.61, -1.61, -1.61, -6.34, -6.34, -6.34, -6.34, -6.34, -6.34, -6.34, -6.06, -5.72, -5.72, -5.72, -6.0, -5.72, -5.72, -5.72, -5.72, -5.72, -5.72, -5.72, -5.32, -5.32, -5.32, -5.06, -5.06, -5.06, -5.06, -5.06, -5.06, -5.06, -5.06, -4.63, -4.63, -4.63, -4.42, -4.66, -4.66, -4.66, -4.0, -4.0, -4.0, -4.0, -4.0, -4.03, -3.56, -3.56, -3.37, -3.37, -3.37, -3.37, -3.37, -3.4, -3.4, -3.4, -2.92, -2.96, -2.96, -2.77, -3.0, -2.8, -2.82, -2.82, -2.4, -2.4, -2.4, -2.4, -2.4, -2.4, -2.2, -2.44, -2.23, -1.7, -1.2, -0.8, -1.0, -1.24, -1.26, -1.26, -0.6, -0.95, -1.2, -2.24, -3.39, -4.09, -4.46, -3.91, -2.33, -1.54, -1.41, -1.13, -0.54, -1.2, -1.26, -1.24, -1.24, -1.86, -1.26, -1.26, -1.26, -6.34, -6.34, -6.34, -6.34, -6.34, -6.34, -6.34, -6.06, -5.72, -5.72, -5.72, -6.0, -5.72, -5.72, -5.72, -5.72, -5.72, -5.72, -5.72, -5.32, -5.32, -5.32, -5.06, -5.06, -5.06, -5.06, -5.06, -5.06, -5.06, -5.06, -4.63, -4.63, -4.63, -4.42, -4.66, -4.66, -4.66, -4.0, -4.0, -4.0, -4.0, -4.0, -4.03, -3.56, -3.56, -3.37, -3.37, -3.37, -3.37, -3.37, -3.4, -3.4, -3.4, -2.92, -2.96, -2.96, -2.77, -3.0, -2.8, -2.82, -2.82, -2.4, -2.4, -2.4, -2.4, -2.4, -2.4, -2.2, -2.44, -2.23, -1.7, -1.2, -0.8, -1.0, -1.24, -1.26, -0.6, -0.6, -0.95, -1.2, -2.24, -3.39, -4.09, -4.56, -3.69, -2.31, -0.74, 0.0, 0.0, 0.0, 0.0, 0.0, 0.0, 0.0, 0.0, -0.57, -0.57, -0.57]}]